<?xml version="1.0" encoding="UTF-8" standalone="no" ?>
<gpx xmlns="http://www.topografix.com/GPX/1/1" xmlns:xsi="http://www.w3.org/2001/XMLSchema-instance" xsi:schemaLocation="http://www.topografix.com/GPX/1/1 http://www.topografix.com/GPX/1/1/gpx.xsd" version="1.1" creator="VisuGPX - https://www.visugpx.com">
  <metadata>
    <name>Gouarec_Guerledan</name>
  </metadata>
  <trk>
    <name><![CDATA[Gouarec_Guerledan_1]]></name>
    <trkseg>
      <trkpt lat="48.2244" lon="-3.17831">
        <ele>133.6</ele>
        <time>2010-01-01T00:00:00Z</time>
      </trkpt>
      <trkpt lat="48.22438" lon="-3.17831">
        <ele>133.6</ele>
        <time>2010-01-01T00:00:00Z</time>
      </trkpt>
      <trkpt lat="48.22438" lon="-3.17834">
        <ele>133.6</ele>
        <time>2010-01-01T00:00:00Z</time>
      </trkpt>
      <trkpt lat="48.22442" lon="-3.17837">
        <ele>133.5</ele>
        <time>2010-01-01T00:00:00Z</time>
      </trkpt>
      <trkpt lat="48.22461" lon="-3.17836">
        <ele>133.1</ele>
        <time>2010-01-01T00:00:00Z</time>
      </trkpt>
      <trkpt lat="48.22463" lon="-3.17836">
        <ele>133</ele>
        <time>2010-01-01T00:00:00Z</time>
      </trkpt>
      <trkpt lat="48.22471" lon="-3.17838">
        <ele>132.8</ele>
        <time>2010-01-01T00:00:00Z</time>
      </trkpt>
      <trkpt lat="48.22482" lon="-3.1784">
        <ele>132.3</ele>
        <time>2010-01-01T00:00:00Z</time>
      </trkpt>
      <trkpt lat="48.22492" lon="-3.17841">
        <ele>131.9</ele>
        <time>2010-01-01T00:00:00Z</time>
      </trkpt>
      <trkpt lat="48.22525" lon="-3.17846">
        <ele>131.6</ele>
        <time>2010-01-01T00:00:00Z</time>
      </trkpt>
      <trkpt lat="48.22542" lon="-3.17853">
        <ele>131.8</ele>
        <time>2010-01-01T00:00:00Z</time>
      </trkpt>
      <trkpt lat="48.22557" lon="-3.17865">
        <ele>131.9</ele>
        <time>2010-01-01T00:00:00Z</time>
      </trkpt>
      <trkpt lat="48.2256" lon="-3.17851">
        <ele>131.7</ele>
        <time>2010-01-01T00:00:00Z</time>
      </trkpt>
      <trkpt lat="48.22571" lon="-3.17814">
        <ele>131.4</ele>
        <time>2010-01-01T00:00:00Z</time>
      </trkpt>
      <trkpt lat="48.2258" lon="-3.17791">
        <ele>131.7</ele>
        <time>2010-01-01T00:00:00Z</time>
      </trkpt>
      <trkpt lat="48.22599" lon="-3.17751">
        <ele>131.6</ele>
        <time>2010-01-01T00:00:00Z</time>
      </trkpt>
      <trkpt lat="48.22601" lon="-3.17746">
        <ele>131.8</ele>
        <time>2010-01-01T00:00:00Z</time>
      </trkpt>
      <trkpt lat="48.22621" lon="-3.17701">
        <ele>131.8</ele>
        <time>2010-01-01T00:00:00Z</time>
      </trkpt>
      <trkpt lat="48.22624" lon="-3.17696">
        <ele>131.8</ele>
        <time>2010-01-01T00:00:00Z</time>
      </trkpt>
      <trkpt lat="48.22627" lon="-3.1769">
        <ele>131.8</ele>
        <time>2010-01-01T00:00:00Z</time>
      </trkpt>
      <trkpt lat="48.22634" lon="-3.17677">
        <ele>131.8</ele>
        <time>2010-01-01T00:00:00Z</time>
      </trkpt>
      <trkpt lat="48.22637" lon="-3.17672">
        <ele>131.8</ele>
        <time>2010-01-01T00:00:00Z</time>
      </trkpt>
      <trkpt lat="48.22646" lon="-3.17662">
        <ele>131.9</ele>
        <time>2010-01-01T00:00:00Z</time>
      </trkpt>
      <trkpt lat="48.22659" lon="-3.17659">
        <ele>131.9</ele>
        <time>2010-01-01T00:00:00Z</time>
      </trkpt>
      <trkpt lat="48.22676" lon="-3.17655">
        <ele>132.5</ele>
        <time>2010-01-01T00:00:00Z</time>
      </trkpt>
      <trkpt lat="48.2269" lon="-3.17645">
        <ele>132.8</ele>
        <time>2010-01-01T00:00:00Z</time>
      </trkpt>
      <trkpt lat="48.22696" lon="-3.17631">
        <ele>133</ele>
        <time>2010-01-01T00:00:00Z</time>
      </trkpt>
      <trkpt lat="48.22697" lon="-3.17633">
        <ele>133</ele>
        <time>2010-01-01T00:00:00Z</time>
      </trkpt>
      <trkpt lat="48.227" lon="-3.17642">
        <ele>133</ele>
        <time>2010-01-01T00:00:00Z</time>
      </trkpt>
      <trkpt lat="48.227" lon="-3.17642">
        <ele>133</ele>
        <time>2010-01-01T00:00:00Z</time>
      </trkpt>
      <trkpt lat="48.22697" lon="-3.17633">
        <ele>133</ele>
        <time>2010-01-01T00:00:00Z</time>
      </trkpt>
      <trkpt lat="48.22696" lon="-3.17631">
        <ele>133</ele>
        <time>2010-01-01T00:00:00Z</time>
      </trkpt>
      <trkpt lat="48.22688" lon="-3.17609">
        <ele>133</ele>
        <time>2010-01-01T00:00:00Z</time>
      </trkpt>
      <trkpt lat="48.22675" lon="-3.17583">
        <ele>133.4</ele>
        <time>2010-01-01T00:00:00Z</time>
      </trkpt>
      <trkpt lat="48.22659" lon="-3.17552">
        <ele>133</ele>
        <time>2010-01-01T00:00:00Z</time>
      </trkpt>
      <trkpt lat="48.2265" lon="-3.17536">
        <ele>133.4</ele>
        <time>2010-01-01T00:00:00Z</time>
      </trkpt>
      <trkpt lat="48.22633" lon="-3.17507">
        <ele>133.7</ele>
        <time>2010-01-01T00:00:00Z</time>
      </trkpt>
      <trkpt lat="48.22634" lon="-3.17481">
        <ele>136.4</ele>
        <time>2010-01-01T00:00:00Z</time>
      </trkpt>
      <trkpt lat="48.22632" lon="-3.17463">
        <ele>136.9</ele>
        <time>2010-01-01T00:00:00Z</time>
      </trkpt>
      <trkpt lat="48.22621" lon="-3.17424">
        <ele>137.2</ele>
        <time>2010-01-01T00:00:00Z</time>
      </trkpt>
      <trkpt lat="48.22608" lon="-3.17372">
        <ele>139.1</ele>
        <time>2010-01-01T00:00:00Z</time>
      </trkpt>
      <trkpt lat="48.22602" lon="-3.1734">
        <ele>138.4</ele>
        <time>2010-01-01T00:00:00Z</time>
      </trkpt>
      <trkpt lat="48.226" lon="-3.17335">
        <ele>138.1</ele>
        <time>2010-01-01T00:00:00Z</time>
      </trkpt>
      <trkpt lat="48.22598" lon="-3.17321">
        <ele>139.4</ele>
        <time>2010-01-01T00:00:00Z</time>
      </trkpt>
      <trkpt lat="48.22597" lon="-3.17284">
        <ele>141.2</ele>
        <time>2010-01-01T00:00:00Z</time>
      </trkpt>
      <trkpt lat="48.22598" lon="-3.17251">
        <ele>141.4</ele>
        <time>2010-01-01T00:00:00Z</time>
      </trkpt>
      <trkpt lat="48.22599" lon="-3.17241">
        <ele>142.6</ele>
        <time>2010-01-01T00:00:00Z</time>
      </trkpt>
      <trkpt lat="48.22602" lon="-3.17207">
        <ele>143.8</ele>
        <time>2010-01-01T00:00:00Z</time>
      </trkpt>
      <trkpt lat="48.22604" lon="-3.17187">
        <ele>144.2</ele>
        <time>2010-01-01T00:00:00Z</time>
      </trkpt>
      <trkpt lat="48.22603" lon="-3.1716">
        <ele>147.2</ele>
        <time>2010-01-01T00:00:00Z</time>
      </trkpt>
      <trkpt lat="48.22596" lon="-3.17129">
        <ele>149</ele>
        <time>2010-01-01T00:00:00Z</time>
      </trkpt>
      <trkpt lat="48.22583" lon="-3.17079">
        <ele>155.6</ele>
        <time>2010-01-01T00:00:00Z</time>
      </trkpt>
      <trkpt lat="48.22572" lon="-3.17045">
        <ele>158.3</ele>
        <time>2010-01-01T00:00:00Z</time>
      </trkpt>
      <trkpt lat="48.22557" lon="-3.16999">
        <ele>164.1</ele>
        <time>2010-01-01T00:00:00Z</time>
      </trkpt>
      <trkpt lat="48.22543" lon="-3.16957">
        <ele>166.3</ele>
        <time>2010-01-01T00:00:00Z</time>
      </trkpt>
      <trkpt lat="48.22543" lon="-3.16957">
        <ele>166.3</ele>
        <time>2010-01-01T00:00:00Z</time>
      </trkpt>
      <trkpt lat="48.22541" lon="-3.16952">
        <ele>166.6</ele>
        <time>2010-01-01T00:00:00Z</time>
      </trkpt>
      <trkpt lat="48.22523" lon="-3.16957">
        <ele>166.8</ele>
        <time>2010-01-01T00:00:00Z</time>
      </trkpt>
      <trkpt lat="48.22502" lon="-3.16967">
        <ele>166.4</ele>
        <time>2010-01-01T00:00:00Z</time>
      </trkpt>
      <trkpt lat="48.22483" lon="-3.16972">
        <ele>169.4</ele>
        <time>2010-01-01T00:00:00Z</time>
      </trkpt>
      <trkpt lat="48.22471" lon="-3.16973">
        <ele>169.9</ele>
        <time>2010-01-01T00:00:00Z</time>
      </trkpt>
      <trkpt lat="48.22447" lon="-3.16968">
        <ele>171</ele>
        <time>2010-01-01T00:00:00Z</time>
      </trkpt>
      <trkpt lat="48.22426" lon="-3.16963">
        <ele>171.8</ele>
        <time>2010-01-01T00:00:00Z</time>
      </trkpt>
      <trkpt lat="48.22399" lon="-3.16955">
        <ele>178.1</ele>
        <time>2010-01-01T00:00:00Z</time>
      </trkpt>
      <trkpt lat="48.22359" lon="-3.1694">
        <ele>182.1</ele>
        <time>2010-01-01T00:00:00Z</time>
      </trkpt>
      <trkpt lat="48.22336" lon="-3.1693">
        <ele>186.6</ele>
        <time>2010-01-01T00:00:00Z</time>
      </trkpt>
      <trkpt lat="48.22304" lon="-3.16913">
        <ele>191.4</ele>
        <time>2010-01-01T00:00:00Z</time>
      </trkpt>
      <trkpt lat="48.22276" lon="-3.16902">
        <ele>189.9</ele>
        <time>2010-01-01T00:00:00Z</time>
      </trkpt>
      <trkpt lat="48.2227" lon="-3.16896">
        <ele>189.8</ele>
        <time>2010-01-01T00:00:00Z</time>
      </trkpt>
      <trkpt lat="48.22265" lon="-3.16886">
        <ele>190.2</ele>
        <time>2010-01-01T00:00:00Z</time>
      </trkpt>
      <trkpt lat="48.22263" lon="-3.16876">
        <ele>190.7</ele>
        <time>2010-01-01T00:00:00Z</time>
      </trkpt>
      <trkpt lat="48.22259" lon="-3.16837">
        <ele>191.4</ele>
        <time>2010-01-01T00:00:00Z</time>
      </trkpt>
      <trkpt lat="48.22255" lon="-3.16793">
        <ele>196.2</ele>
        <time>2010-01-01T00:00:00Z</time>
      </trkpt>
      <trkpt lat="48.22254" lon="-3.16759">
        <ele>197.1</ele>
        <time>2010-01-01T00:00:00Z</time>
      </trkpt>
      <trkpt lat="48.22252" lon="-3.16729">
        <ele>199.3</ele>
        <time>2010-01-01T00:00:00Z</time>
      </trkpt>
      <trkpt lat="48.22253" lon="-3.16702">
        <ele>200.5</ele>
        <time>2010-01-01T00:00:00Z</time>
      </trkpt>
      <trkpt lat="48.22255" lon="-3.16675">
        <ele>201</ele>
        <time>2010-01-01T00:00:00Z</time>
      </trkpt>
      <trkpt lat="48.22256" lon="-3.16663">
        <ele>201.5</ele>
        <time>2010-01-01T00:00:00Z</time>
      </trkpt>
      <trkpt lat="48.22256" lon="-3.16663">
        <ele>201.5</ele>
        <time>2010-01-01T00:00:00Z</time>
      </trkpt>
      <trkpt lat="48.22242" lon="-3.16622">
        <ele>194.6</ele>
        <time>2010-01-01T00:00:00Z</time>
      </trkpt>
      <trkpt lat="48.22242" lon="-3.16622">
        <ele>194.6</ele>
        <time>2010-01-01T00:00:00Z</time>
      </trkpt>
      <trkpt lat="48.22219" lon="-3.16512">
        <ele>194.2</ele>
        <time>2010-01-01T00:00:00Z</time>
      </trkpt>
      <trkpt lat="48.22219" lon="-3.16512">
        <ele>194.2</ele>
        <time>2010-01-01T00:00:00Z</time>
      </trkpt>
      <trkpt lat="48.22207" lon="-3.1643">
        <ele>191.4</ele>
        <time>2010-01-01T00:00:00Z</time>
      </trkpt>
      <trkpt lat="48.22207" lon="-3.1643">
        <ele>191.4</ele>
        <time>2010-01-01T00:00:00Z</time>
      </trkpt>
      <trkpt lat="48.22173" lon="-3.16422">
        <ele>185.6</ele>
        <time>2010-01-01T00:00:00Z</time>
      </trkpt>
      <trkpt lat="48.22173" lon="-3.16422">
        <ele>185.6</ele>
        <time>2010-01-01T00:00:00Z</time>
      </trkpt>
      <trkpt lat="48.22127" lon="-3.1649">
        <ele>173.2</ele>
        <time>2010-01-01T00:00:00Z</time>
      </trkpt>
      <trkpt lat="48.22127" lon="-3.1649">
        <ele>173.2</ele>
        <time>2010-01-01T00:00:00Z</time>
      </trkpt>
      <trkpt lat="48.22114" lon="-3.16455">
        <ele>170.6</ele>
        <time>2010-01-01T00:00:00Z</time>
      </trkpt>
      <trkpt lat="48.22114" lon="-3.16455">
        <ele>170.6</ele>
        <time>2010-01-01T00:00:00Z</time>
      </trkpt>
      <trkpt lat="48.22098" lon="-3.16512">
        <ele>168</ele>
        <time>2010-01-01T00:00:00Z</time>
      </trkpt>
      <trkpt lat="48.22098" lon="-3.16512">
        <ele>168</ele>
        <time>2010-01-01T00:00:00Z</time>
      </trkpt>
      <trkpt lat="48.22101" lon="-3.16264">
        <ele>158.2</ele>
        <time>2010-01-01T00:00:00Z</time>
      </trkpt>
      <trkpt lat="48.22101" lon="-3.16264">
        <ele>158.2</ele>
        <time>2010-01-01T00:00:00Z</time>
      </trkpt>
      <trkpt lat="48.22073" lon="-3.16054">
        <ele>150.5</ele>
        <time>2010-01-01T00:00:00Z</time>
      </trkpt>
      <trkpt lat="48.22073" lon="-3.16054">
        <ele>150.5</ele>
        <time>2010-01-01T00:00:00Z</time>
      </trkpt>
      <trkpt lat="48.22074" lon="-3.15901">
        <ele>157.9</ele>
        <time>2010-01-01T00:00:00Z</time>
      </trkpt>
      <trkpt lat="48.22074" lon="-3.15901">
        <ele>157.9</ele>
        <time>2010-01-01T00:00:00Z</time>
      </trkpt>
      <trkpt lat="48.22073" lon="-3.15898">
        <ele>157.6</ele>
        <time>2010-01-01T00:00:00Z</time>
      </trkpt>
      <trkpt lat="48.22077" lon="-3.15895">
        <ele>157.7</ele>
        <time>2010-01-01T00:00:00Z</time>
      </trkpt>
      <trkpt lat="48.22083" lon="-3.15884">
        <ele>157.3</ele>
        <time>2010-01-01T00:00:00Z</time>
      </trkpt>
      <trkpt lat="48.2209" lon="-3.15864">
        <ele>165.7</ele>
        <time>2010-01-01T00:00:00Z</time>
      </trkpt>
      <trkpt lat="48.22115" lon="-3.15812">
        <ele>166.2</ele>
        <time>2010-01-01T00:00:00Z</time>
      </trkpt>
      <trkpt lat="48.22128" lon="-3.15781">
        <ele>167.5</ele>
        <time>2010-01-01T00:00:00Z</time>
      </trkpt>
      <trkpt lat="48.22141" lon="-3.15754">
        <ele>169.2</ele>
        <time>2010-01-01T00:00:00Z</time>
      </trkpt>
      <trkpt lat="48.22144" lon="-3.15751">
        <ele>169.6</ele>
        <time>2010-01-01T00:00:00Z</time>
      </trkpt>
      <trkpt lat="48.22146" lon="-3.15751">
        <ele>169.9</ele>
        <time>2010-01-01T00:00:00Z</time>
      </trkpt>
      <trkpt lat="48.22146" lon="-3.15751">
        <ele>169.9</ele>
        <time>2010-01-01T00:00:00Z</time>
      </trkpt>
      <trkpt lat="48.22125" lon="-3.15714">
        <ele>167.2</ele>
        <time>2010-01-01T00:00:00Z</time>
      </trkpt>
      <trkpt lat="48.22115" lon="-3.15673">
        <ele>166.6</ele>
        <time>2010-01-01T00:00:00Z</time>
      </trkpt>
      <trkpt lat="48.22112" lon="-3.15622">
        <ele>167.6</ele>
        <time>2010-01-01T00:00:00Z</time>
      </trkpt>
      <trkpt lat="48.22116" lon="-3.15596">
        <ele>167.8</ele>
        <time>2010-01-01T00:00:00Z</time>
      </trkpt>
      <trkpt lat="48.22113" lon="-3.15572">
        <ele>168.8</ele>
        <time>2010-01-01T00:00:00Z</time>
      </trkpt>
      <trkpt lat="48.22106" lon="-3.15554">
        <ele>169.1</ele>
        <time>2010-01-01T00:00:00Z</time>
      </trkpt>
      <trkpt lat="48.22078" lon="-3.15594">
        <ele>168.2</ele>
        <time>2010-01-01T00:00:00Z</time>
      </trkpt>
      <trkpt lat="48.22067" lon="-3.1563">
        <ele>168.6</ele>
        <time>2010-01-01T00:00:00Z</time>
      </trkpt>
      <trkpt lat="48.22067" lon="-3.15662">
        <ele>166.5</ele>
        <time>2010-01-01T00:00:00Z</time>
      </trkpt>
      <trkpt lat="48.22062" lon="-3.15711">
        <ele>163.4</ele>
        <time>2010-01-01T00:00:00Z</time>
      </trkpt>
      <trkpt lat="48.22036" lon="-3.1575">
        <ele>159.8</ele>
        <time>2010-01-01T00:00:00Z</time>
      </trkpt>
      <trkpt lat="48.22036" lon="-3.1575">
        <ele>159.8</ele>
        <time>2010-01-01T00:00:00Z</time>
      </trkpt>
      <trkpt lat="48.22034" lon="-3.15753">
        <ele>159.8</ele>
        <time>2010-01-01T00:00:00Z</time>
      </trkpt>
      <trkpt lat="48.22019" lon="-3.1578">
        <ele>159.3</ele>
        <time>2010-01-01T00:00:00Z</time>
      </trkpt>
      <trkpt lat="48.22004" lon="-3.15818">
        <ele>156.4</ele>
        <time>2010-01-01T00:00:00Z</time>
      </trkpt>
      <trkpt lat="48.21994" lon="-3.15871">
        <ele>150.6</ele>
        <time>2010-01-01T00:00:00Z</time>
      </trkpt>
      <trkpt lat="48.21987" lon="-3.15932">
        <ele>144.1</ele>
        <time>2010-01-01T00:00:00Z</time>
      </trkpt>
      <trkpt lat="48.2197" lon="-3.15972">
        <ele>141.5</ele>
        <time>2010-01-01T00:00:00Z</time>
      </trkpt>
      <trkpt lat="48.21971" lon="-3.1596">
        <ele>142</ele>
        <time>2010-01-01T00:00:00Z</time>
      </trkpt>
      <trkpt lat="48.21969" lon="-3.15893">
        <ele>149.3</ele>
        <time>2010-01-01T00:00:00Z</time>
      </trkpt>
      <trkpt lat="48.21953" lon="-3.15867">
        <ele>150.8</ele>
        <time>2010-01-01T00:00:00Z</time>
      </trkpt>
      <trkpt lat="48.2195" lon="-3.15854">
        <ele>151.6</ele>
        <time>2010-01-01T00:00:00Z</time>
      </trkpt>
      <trkpt lat="48.21947" lon="-3.15842">
        <ele>152.4</ele>
        <time>2010-01-01T00:00:00Z</time>
      </trkpt>
      <trkpt lat="48.21941" lon="-3.15834">
        <ele>153.1</ele>
        <time>2010-01-01T00:00:00Z</time>
      </trkpt>
      <trkpt lat="48.21922" lon="-3.15815">
        <ele>159.3</ele>
        <time>2010-01-01T00:00:00Z</time>
      </trkpt>
      <trkpt lat="48.21916" lon="-3.15811">
        <ele>165.1</ele>
        <time>2010-01-01T00:00:00Z</time>
      </trkpt>
      <trkpt lat="48.21907" lon="-3.15799">
        <ele>167.7</ele>
        <time>2010-01-01T00:00:00Z</time>
      </trkpt>
      <trkpt lat="48.21893" lon="-3.15787">
        <ele>169.9</ele>
        <time>2010-01-01T00:00:00Z</time>
      </trkpt>
      <trkpt lat="48.21882" lon="-3.15779">
        <ele>171.4</ele>
        <time>2010-01-01T00:00:00Z</time>
      </trkpt>
      <trkpt lat="48.21862" lon="-3.1577">
        <ele>174.4</ele>
        <time>2010-01-01T00:00:00Z</time>
      </trkpt>
      <trkpt lat="48.21856" lon="-3.15764">
        <ele>175.9</ele>
        <time>2010-01-01T00:00:00Z</time>
      </trkpt>
      <trkpt lat="48.21845" lon="-3.15745">
        <ele>183.1</ele>
        <time>2010-01-01T00:00:00Z</time>
      </trkpt>
      <trkpt lat="48.21837" lon="-3.15734">
        <ele>183.2</ele>
        <time>2010-01-01T00:00:00Z</time>
      </trkpt>
      <trkpt lat="48.2183" lon="-3.15731">
        <ele>190.2</ele>
        <time>2010-01-01T00:00:00Z</time>
      </trkpt>
      <trkpt lat="48.21816" lon="-3.15728">
        <ele>191.9</ele>
        <time>2010-01-01T00:00:00Z</time>
      </trkpt>
      <trkpt lat="48.21807" lon="-3.15727">
        <ele>192.9</ele>
        <time>2010-01-01T00:00:00Z</time>
      </trkpt>
      <trkpt lat="48.21797" lon="-3.15729">
        <ele>194</ele>
        <time>2010-01-01T00:00:00Z</time>
      </trkpt>
      <trkpt lat="48.21787" lon="-3.15735">
        <ele>195</ele>
        <time>2010-01-01T00:00:00Z</time>
      </trkpt>
      <trkpt lat="48.21776" lon="-3.15742">
        <ele>196.2</ele>
        <time>2010-01-01T00:00:00Z</time>
      </trkpt>
      <trkpt lat="48.21764" lon="-3.15746">
        <ele>197.7</ele>
        <time>2010-01-01T00:00:00Z</time>
      </trkpt>
      <trkpt lat="48.21755" lon="-3.15747">
        <ele>199</ele>
        <time>2010-01-01T00:00:00Z</time>
      </trkpt>
      <trkpt lat="48.21741" lon="-3.15749">
        <ele>200.6</ele>
        <time>2010-01-01T00:00:00Z</time>
      </trkpt>
      <trkpt lat="48.21729" lon="-3.15751">
        <ele>196.9</ele>
        <time>2010-01-01T00:00:00Z</time>
      </trkpt>
      <trkpt lat="48.21723" lon="-3.15756">
        <ele>196.4</ele>
        <time>2010-01-01T00:00:00Z</time>
      </trkpt>
      <trkpt lat="48.21715" lon="-3.15764">
        <ele>195.8</ele>
        <time>2010-01-01T00:00:00Z</time>
      </trkpt>
      <trkpt lat="48.21706" lon="-3.15775">
        <ele>195.2</ele>
        <time>2010-01-01T00:00:00Z</time>
      </trkpt>
      <trkpt lat="48.21701" lon="-3.15783">
        <ele>194.7</ele>
        <time>2010-01-01T00:00:00Z</time>
      </trkpt>
      <trkpt lat="48.21701" lon="-3.15783">
        <ele>194.7</ele>
        <time>2010-01-01T00:00:00Z</time>
      </trkpt>
      <trkpt lat="48.21698" lon="-3.1578">
        <ele>194.9</ele>
        <time>2010-01-01T00:00:00Z</time>
      </trkpt>
      <trkpt lat="48.21696" lon="-3.15768">
        <ele>195.5</ele>
        <time>2010-01-01T00:00:00Z</time>
      </trkpt>
      <trkpt lat="48.21694" lon="-3.15761">
        <ele>195.8</ele>
        <time>2010-01-01T00:00:00Z</time>
      </trkpt>
      <trkpt lat="48.2169" lon="-3.15754">
        <ele>196.1</ele>
        <time>2010-01-01T00:00:00Z</time>
      </trkpt>
      <trkpt lat="48.21686" lon="-3.15742">
        <ele>200.2</ele>
        <time>2010-01-01T00:00:00Z</time>
      </trkpt>
      <trkpt lat="48.21684" lon="-3.15734">
        <ele>200.4</ele>
        <time>2010-01-01T00:00:00Z</time>
      </trkpt>
      <trkpt lat="48.21679" lon="-3.15725">
        <ele>200.8</ele>
        <time>2010-01-01T00:00:00Z</time>
      </trkpt>
      <trkpt lat="48.21674" lon="-3.15715">
        <ele>201.3</ele>
        <time>2010-01-01T00:00:00Z</time>
      </trkpt>
      <trkpt lat="48.21672" lon="-3.15711">
        <ele>201.5</ele>
        <time>2010-01-01T00:00:00Z</time>
      </trkpt>
      <trkpt lat="48.21669" lon="-3.15706">
        <ele>201.8</ele>
        <time>2010-01-01T00:00:00Z</time>
      </trkpt>
      <trkpt lat="48.21665" lon="-3.15695">
        <ele>195.6</ele>
        <time>2010-01-01T00:00:00Z</time>
      </trkpt>
      <trkpt lat="48.21666" lon="-3.15682">
        <ele>198.1</ele>
        <time>2010-01-01T00:00:00Z</time>
      </trkpt>
      <trkpt lat="48.21667" lon="-3.15662">
        <ele>204.3</ele>
        <time>2010-01-01T00:00:00Z</time>
      </trkpt>
      <trkpt lat="48.2167" lon="-3.1565">
        <ele>205</ele>
        <time>2010-01-01T00:00:00Z</time>
      </trkpt>
      <trkpt lat="48.21672" lon="-3.15643">
        <ele>205.2</ele>
        <time>2010-01-01T00:00:00Z</time>
      </trkpt>
      <trkpt lat="48.21674" lon="-3.15635">
        <ele>205.4</ele>
        <time>2010-01-01T00:00:00Z</time>
      </trkpt>
      <trkpt lat="48.21677" lon="-3.15624">
        <ele>205.5</ele>
        <time>2010-01-01T00:00:00Z</time>
      </trkpt>
      <trkpt lat="48.21677" lon="-3.15615">
        <ele>205.5</ele>
        <time>2010-01-01T00:00:00Z</time>
      </trkpt>
      <trkpt lat="48.21679" lon="-3.15606">
        <ele>205.5</ele>
        <time>2010-01-01T00:00:00Z</time>
      </trkpt>
      <trkpt lat="48.21683" lon="-3.15597">
        <ele>205.4</ele>
        <time>2010-01-01T00:00:00Z</time>
      </trkpt>
      <trkpt lat="48.21686" lon="-3.15583">
        <ele>206.5</ele>
        <time>2010-01-01T00:00:00Z</time>
      </trkpt>
      <trkpt lat="48.21689" lon="-3.15574">
        <ele>206.9</ele>
        <time>2010-01-01T00:00:00Z</time>
      </trkpt>
      <trkpt lat="48.21695" lon="-3.15557">
        <ele>207.7</ele>
        <time>2010-01-01T00:00:00Z</time>
      </trkpt>
      <trkpt lat="48.21698" lon="-3.15543">
        <ele>208.1</ele>
        <time>2010-01-01T00:00:00Z</time>
      </trkpt>
      <trkpt lat="48.21701" lon="-3.15523">
        <ele>208.4</ele>
        <time>2010-01-01T00:00:00Z</time>
      </trkpt>
      <trkpt lat="48.21703" lon="-3.15512">
        <ele>208.6</ele>
        <time>2010-01-01T00:00:00Z</time>
      </trkpt>
      <trkpt lat="48.21705" lon="-3.15496">
        <ele>210</ele>
        <time>2010-01-01T00:00:00Z</time>
      </trkpt>
      <trkpt lat="48.21707" lon="-3.15482">
        <ele>210.4</ele>
        <time>2010-01-01T00:00:00Z</time>
      </trkpt>
      <trkpt lat="48.21712" lon="-3.15465">
        <ele>211</ele>
        <time>2010-01-01T00:00:00Z</time>
      </trkpt>
      <trkpt lat="48.21715" lon="-3.15452">
        <ele>211.5</ele>
        <time>2010-01-01T00:00:00Z</time>
      </trkpt>
      <trkpt lat="48.21719" lon="-3.15447">
        <ele>211.9</ele>
        <time>2010-01-01T00:00:00Z</time>
      </trkpt>
      <trkpt lat="48.21721" lon="-3.15441">
        <ele>212.3</ele>
        <time>2010-01-01T00:00:00Z</time>
      </trkpt>
      <trkpt lat="48.21721" lon="-3.15431">
        <ele>212.7</ele>
        <time>2010-01-01T00:00:00Z</time>
      </trkpt>
      <trkpt lat="48.21723" lon="-3.15426">
        <ele>213.2</ele>
        <time>2010-01-01T00:00:00Z</time>
      </trkpt>
      <trkpt lat="48.21725" lon="-3.1542">
        <ele>213.7</ele>
        <time>2010-01-01T00:00:00Z</time>
      </trkpt>
      <trkpt lat="48.21726" lon="-3.15409">
        <ele>214.1</ele>
        <time>2010-01-01T00:00:00Z</time>
      </trkpt>
      <trkpt lat="48.21728" lon="-3.154">
        <ele>214</ele>
        <time>2010-01-01T00:00:00Z</time>
      </trkpt>
      <trkpt lat="48.21728" lon="-3.15395">
        <ele>213.8</ele>
        <time>2010-01-01T00:00:00Z</time>
      </trkpt>
      <trkpt lat="48.21727" lon="-3.15384">
        <ele>213.4</ele>
        <time>2010-01-01T00:00:00Z</time>
      </trkpt>
      <trkpt lat="48.21725" lon="-3.15376">
        <ele>213.1</ele>
        <time>2010-01-01T00:00:00Z</time>
      </trkpt>
      <trkpt lat="48.21724" lon="-3.15372">
        <ele>213</ele>
        <time>2010-01-01T00:00:00Z</time>
      </trkpt>
      <trkpt lat="48.21723" lon="-3.1537">
        <ele>213</ele>
        <time>2010-01-01T00:00:00Z</time>
      </trkpt>
      <trkpt lat="48.2172" lon="-3.15362">
        <ele>212.8</ele>
        <time>2010-01-01T00:00:00Z</time>
      </trkpt>
      <trkpt lat="48.21723" lon="-3.1535">
        <ele>213.6</ele>
        <time>2010-01-01T00:00:00Z</time>
      </trkpt>
      <trkpt lat="48.21724" lon="-3.15338">
        <ele>214.2</ele>
        <time>2010-01-01T00:00:00Z</time>
      </trkpt>
      <trkpt lat="48.21725" lon="-3.15328">
        <ele>214.7</ele>
        <time>2010-01-01T00:00:00Z</time>
      </trkpt>
      <trkpt lat="48.21725" lon="-3.15327">
        <ele>214.7</ele>
        <time>2010-01-01T00:00:00Z</time>
      </trkpt>
      <trkpt lat="48.21726" lon="-3.15322">
        <ele>214.7</ele>
        <time>2010-01-01T00:00:00Z</time>
      </trkpt>
      <trkpt lat="48.2173" lon="-3.15313">
        <ele>214.9</ele>
        <time>2010-01-01T00:00:00Z</time>
      </trkpt>
      <trkpt lat="48.21735" lon="-3.15293">
        <ele>215.1</ele>
        <time>2010-01-01T00:00:00Z</time>
      </trkpt>
      <trkpt lat="48.21737" lon="-3.15284">
        <ele>215.7</ele>
        <time>2010-01-01T00:00:00Z</time>
      </trkpt>
      <trkpt lat="48.21738" lon="-3.15278">
        <ele>216.3</ele>
        <time>2010-01-01T00:00:00Z</time>
      </trkpt>
      <trkpt lat="48.21736" lon="-3.1527">
        <ele>217</ele>
        <time>2010-01-01T00:00:00Z</time>
      </trkpt>
      <trkpt lat="48.21735" lon="-3.1526">
        <ele>218.3</ele>
        <time>2010-01-01T00:00:00Z</time>
      </trkpt>
      <trkpt lat="48.21736" lon="-3.15254">
        <ele>219.3</ele>
        <time>2010-01-01T00:00:00Z</time>
      </trkpt>
      <trkpt lat="48.21735" lon="-3.15249">
        <ele>218.7</ele>
        <time>2010-01-01T00:00:00Z</time>
      </trkpt>
      <trkpt lat="48.21734" lon="-3.15243">
        <ele>217.9</ele>
        <time>2010-01-01T00:00:00Z</time>
      </trkpt>
      <trkpt lat="48.21735" lon="-3.15231">
        <ele>216.4</ele>
        <time>2010-01-01T00:00:00Z</time>
      </trkpt>
      <trkpt lat="48.21738" lon="-3.15218">
        <ele>215.2</ele>
        <time>2010-01-01T00:00:00Z</time>
      </trkpt>
      <trkpt lat="48.21739" lon="-3.15208">
        <ele>214.8</ele>
        <time>2010-01-01T00:00:00Z</time>
      </trkpt>
      <trkpt lat="48.2174" lon="-3.15202">
        <ele>214.9</ele>
        <time>2010-01-01T00:00:00Z</time>
      </trkpt>
      <trkpt lat="48.21743" lon="-3.15192">
        <ele>215.7</ele>
        <time>2010-01-01T00:00:00Z</time>
      </trkpt>
      <trkpt lat="48.21743" lon="-3.15182">
        <ele>217.1</ele>
        <time>2010-01-01T00:00:00Z</time>
      </trkpt>
      <trkpt lat="48.21744" lon="-3.15164">
        <ele>219</ele>
        <time>2010-01-01T00:00:00Z</time>
      </trkpt>
      <trkpt lat="48.21746" lon="-3.15151">
        <ele>215.2</ele>
        <time>2010-01-01T00:00:00Z</time>
      </trkpt>
      <trkpt lat="48.21748" lon="-3.15136">
        <ele>212.1</ele>
        <time>2010-01-01T00:00:00Z</time>
      </trkpt>
      <trkpt lat="48.21752" lon="-3.15118">
        <ele>222.7</ele>
        <time>2010-01-01T00:00:00Z</time>
      </trkpt>
      <trkpt lat="48.21754" lon="-3.15101">
        <ele>221.1</ele>
        <time>2010-01-01T00:00:00Z</time>
      </trkpt>
      <trkpt lat="48.21756" lon="-3.15083">
        <ele>218.4</ele>
        <time>2010-01-01T00:00:00Z</time>
      </trkpt>
      <trkpt lat="48.21756" lon="-3.15068">
        <ele>219.7</ele>
        <time>2010-01-01T00:00:00Z</time>
      </trkpt>
      <trkpt lat="48.21756" lon="-3.1505">
        <ele>220.4</ele>
        <time>2010-01-01T00:00:00Z</time>
      </trkpt>
      <trkpt lat="48.21754" lon="-3.15028">
        <ele>218.9</ele>
        <time>2010-01-01T00:00:00Z</time>
      </trkpt>
      <trkpt lat="48.21752" lon="-3.15004">
        <ele>213.1</ele>
        <time>2010-01-01T00:00:00Z</time>
      </trkpt>
      <trkpt lat="48.21753" lon="-3.14983">
        <ele>216.1</ele>
        <time>2010-01-01T00:00:00Z</time>
      </trkpt>
      <trkpt lat="48.21751" lon="-3.14969">
        <ele>217.4</ele>
        <time>2010-01-01T00:00:00Z</time>
      </trkpt>
      <trkpt lat="48.2175" lon="-3.14959">
        <ele>217.6</ele>
        <time>2010-01-01T00:00:00Z</time>
      </trkpt>
      <trkpt lat="48.21753" lon="-3.14947">
        <ele>217.1</ele>
        <time>2010-01-01T00:00:00Z</time>
      </trkpt>
      <trkpt lat="48.21756" lon="-3.14926">
        <ele>213.7</ele>
        <time>2010-01-01T00:00:00Z</time>
      </trkpt>
      <trkpt lat="48.2176" lon="-3.14908">
        <ele>214.4</ele>
        <time>2010-01-01T00:00:00Z</time>
      </trkpt>
      <trkpt lat="48.21763" lon="-3.14888">
        <ele>217.6</ele>
        <time>2010-01-01T00:00:00Z</time>
      </trkpt>
      <trkpt lat="48.21766" lon="-3.14866">
        <ele>218.2</ele>
        <time>2010-01-01T00:00:00Z</time>
      </trkpt>
      <trkpt lat="48.21767" lon="-3.14844">
        <ele>216.4</ele>
        <time>2010-01-01T00:00:00Z</time>
      </trkpt>
      <trkpt lat="48.21767" lon="-3.1481">
        <ele>218.6</ele>
        <time>2010-01-01T00:00:00Z</time>
      </trkpt>
      <trkpt lat="48.21768" lon="-3.14793">
        <ele>219.9</ele>
        <time>2010-01-01T00:00:00Z</time>
      </trkpt>
      <trkpt lat="48.21769" lon="-3.14772">
        <ele>219.6</ele>
        <time>2010-01-01T00:00:00Z</time>
      </trkpt>
      <trkpt lat="48.21772" lon="-3.14754">
        <ele>219.2</ele>
        <time>2010-01-01T00:00:00Z</time>
      </trkpt>
      <trkpt lat="48.21776" lon="-3.14737">
        <ele>222.2</ele>
        <time>2010-01-01T00:00:00Z</time>
      </trkpt>
      <trkpt lat="48.21783" lon="-3.14726">
        <ele>224.2</ele>
        <time>2010-01-01T00:00:00Z</time>
      </trkpt>
      <trkpt lat="48.21785" lon="-3.14716">
        <ele>224.9</ele>
        <time>2010-01-01T00:00:00Z</time>
      </trkpt>
      <trkpt lat="48.21787" lon="-3.14701">
        <ele>225.4</ele>
        <time>2010-01-01T00:00:00Z</time>
      </trkpt>
      <trkpt lat="48.21788" lon="-3.14684">
        <ele>225.7</ele>
        <time>2010-01-01T00:00:00Z</time>
      </trkpt>
      <trkpt lat="48.21789" lon="-3.14668">
        <ele>226</ele>
        <time>2010-01-01T00:00:00Z</time>
      </trkpt>
      <trkpt lat="48.21796" lon="-3.14652">
        <ele>228</ele>
        <time>2010-01-01T00:00:00Z</time>
      </trkpt>
      <trkpt lat="48.218" lon="-3.14648">
        <ele>228.6</ele>
        <time>2010-01-01T00:00:00Z</time>
      </trkpt>
      <trkpt lat="48.21804" lon="-3.14637">
        <ele>228.9</ele>
        <time>2010-01-01T00:00:00Z</time>
      </trkpt>
      <trkpt lat="48.21804" lon="-3.14628">
        <ele>228.8</ele>
        <time>2010-01-01T00:00:00Z</time>
      </trkpt>
      <trkpt lat="48.21802" lon="-3.14623">
        <ele>228.5</ele>
        <time>2010-01-01T00:00:00Z</time>
      </trkpt>
      <trkpt lat="48.21799" lon="-3.1462">
        <ele>228</ele>
        <time>2010-01-01T00:00:00Z</time>
      </trkpt>
      <trkpt lat="48.21796" lon="-3.14615">
        <ele>227.6</ele>
        <time>2010-01-01T00:00:00Z</time>
      </trkpt>
      <trkpt lat="48.21796" lon="-3.14607">
        <ele>227.6</ele>
        <time>2010-01-01T00:00:00Z</time>
      </trkpt>
      <trkpt lat="48.21797" lon="-3.14598">
        <ele>227.9</ele>
        <time>2010-01-01T00:00:00Z</time>
      </trkpt>
      <trkpt lat="48.218" lon="-3.14592">
        <ele>228.6</ele>
        <time>2010-01-01T00:00:00Z</time>
      </trkpt>
      <trkpt lat="48.21804" lon="-3.14584">
        <ele>229.6</ele>
        <time>2010-01-01T00:00:00Z</time>
      </trkpt>
      <trkpt lat="48.21805" lon="-3.14579">
        <ele>228.5</ele>
        <time>2010-01-01T00:00:00Z</time>
      </trkpt>
      <trkpt lat="48.21805" lon="-3.14571">
        <ele>228.2</ele>
        <time>2010-01-01T00:00:00Z</time>
      </trkpt>
      <trkpt lat="48.21806" lon="-3.14561">
        <ele>227.7</ele>
        <time>2010-01-01T00:00:00Z</time>
      </trkpt>
      <trkpt lat="48.21808" lon="-3.14549">
        <ele>227.4</ele>
        <time>2010-01-01T00:00:00Z</time>
      </trkpt>
      <trkpt lat="48.2181" lon="-3.14542">
        <ele>227.4</ele>
        <time>2010-01-01T00:00:00Z</time>
      </trkpt>
      <trkpt lat="48.21808" lon="-3.14538">
        <ele>227.1</ele>
        <time>2010-01-01T00:00:00Z</time>
      </trkpt>
      <trkpt lat="48.21806" lon="-3.14534">
        <ele>226.8</ele>
        <time>2010-01-01T00:00:00Z</time>
      </trkpt>
      <trkpt lat="48.21802" lon="-3.14524">
        <ele>226.2</ele>
        <time>2010-01-01T00:00:00Z</time>
      </trkpt>
      <trkpt lat="48.218" lon="-3.14516">
        <ele>225.9</ele>
        <time>2010-01-01T00:00:00Z</time>
      </trkpt>
      <trkpt lat="48.21797" lon="-3.14505">
        <ele>225.3</ele>
        <time>2010-01-01T00:00:00Z</time>
      </trkpt>
      <trkpt lat="48.21795" lon="-3.1449">
        <ele>222.6</ele>
        <time>2010-01-01T00:00:00Z</time>
      </trkpt>
      <trkpt lat="48.21795" lon="-3.14477">
        <ele>222.2</ele>
        <time>2010-01-01T00:00:00Z</time>
      </trkpt>
      <trkpt lat="48.21793" lon="-3.14459">
        <ele>221.5</ele>
        <time>2010-01-01T00:00:00Z</time>
      </trkpt>
      <trkpt lat="48.21793" lon="-3.14444">
        <ele>221.2</ele>
        <time>2010-01-01T00:00:00Z</time>
      </trkpt>
      <trkpt lat="48.21794" lon="-3.14435">
        <ele>221.3</ele>
        <time>2010-01-01T00:00:00Z</time>
      </trkpt>
      <trkpt lat="48.21796" lon="-3.14429">
        <ele>221.7</ele>
        <time>2010-01-01T00:00:00Z</time>
      </trkpt>
      <trkpt lat="48.21798" lon="-3.14424">
        <ele>222.1</ele>
        <time>2010-01-01T00:00:00Z</time>
      </trkpt>
      <trkpt lat="48.21799" lon="-3.14419">
        <ele>222.4</ele>
        <time>2010-01-01T00:00:00Z</time>
      </trkpt>
      <trkpt lat="48.21798" lon="-3.14414">
        <ele>220</ele>
        <time>2010-01-01T00:00:00Z</time>
      </trkpt>
      <trkpt lat="48.21795" lon="-3.14409">
        <ele>219.1</ele>
        <time>2010-01-01T00:00:00Z</time>
      </trkpt>
      <trkpt lat="48.21793" lon="-3.14404">
        <ele>218.6</ele>
        <time>2010-01-01T00:00:00Z</time>
      </trkpt>
      <trkpt lat="48.21794" lon="-3.14398">
        <ele>218.7</ele>
        <time>2010-01-01T00:00:00Z</time>
      </trkpt>
      <trkpt lat="48.21795" lon="-3.1439">
        <ele>218.7</ele>
        <time>2010-01-01T00:00:00Z</time>
      </trkpt>
      <trkpt lat="48.21796" lon="-3.14382">
        <ele>218.6</ele>
        <time>2010-01-01T00:00:00Z</time>
      </trkpt>
      <trkpt lat="48.21799" lon="-3.14376">
        <ele>218.9</ele>
        <time>2010-01-01T00:00:00Z</time>
      </trkpt>
      <trkpt lat="48.21803" lon="-3.14369">
        <ele>219.4</ele>
        <time>2010-01-01T00:00:00Z</time>
      </trkpt>
      <trkpt lat="48.21806" lon="-3.14363">
        <ele>219.9</ele>
        <time>2010-01-01T00:00:00Z</time>
      </trkpt>
      <trkpt lat="48.21806" lon="-3.14353">
        <ele>220</ele>
        <time>2010-01-01T00:00:00Z</time>
      </trkpt>
      <trkpt lat="48.21807" lon="-3.1434">
        <ele>220.6</ele>
        <time>2010-01-01T00:00:00Z</time>
      </trkpt>
      <trkpt lat="48.21809" lon="-3.14325">
        <ele>218.9</ele>
        <time>2010-01-01T00:00:00Z</time>
      </trkpt>
      <trkpt lat="48.2181" lon="-3.14315">
        <ele>218.3</ele>
        <time>2010-01-01T00:00:00Z</time>
      </trkpt>
      <trkpt lat="48.21809" lon="-3.14305">
        <ele>217.4</ele>
        <time>2010-01-01T00:00:00Z</time>
      </trkpt>
      <trkpt lat="48.21807" lon="-3.14294">
        <ele>216.5</ele>
        <time>2010-01-01T00:00:00Z</time>
      </trkpt>
      <trkpt lat="48.21806" lon="-3.14278">
        <ele>216.1</ele>
        <time>2010-01-01T00:00:00Z</time>
      </trkpt>
      <trkpt lat="48.21807" lon="-3.14265">
        <ele>216.5</ele>
        <time>2010-01-01T00:00:00Z</time>
      </trkpt>
      <trkpt lat="48.21806" lon="-3.14251">
        <ele>216.6</ele>
        <time>2010-01-01T00:00:00Z</time>
      </trkpt>
      <trkpt lat="48.21803" lon="-3.14245">
        <ele>214.4</ele>
        <time>2010-01-01T00:00:00Z</time>
      </trkpt>
      <trkpt lat="48.21801" lon="-3.1424">
        <ele>213.8</ele>
        <time>2010-01-01T00:00:00Z</time>
      </trkpt>
      <trkpt lat="48.218" lon="-3.1423">
        <ele>213.4</ele>
        <time>2010-01-01T00:00:00Z</time>
      </trkpt>
      <trkpt lat="48.21801" lon="-3.14221">
        <ele>213.2</ele>
        <time>2010-01-01T00:00:00Z</time>
      </trkpt>
      <trkpt lat="48.21804" lon="-3.14208">
        <ele>213.4</ele>
        <time>2010-01-01T00:00:00Z</time>
      </trkpt>
      <trkpt lat="48.2181" lon="-3.1419">
        <ele>214.4</ele>
        <time>2010-01-01T00:00:00Z</time>
      </trkpt>
      <trkpt lat="48.21819" lon="-3.14164">
        <ele>216.3</ele>
        <time>2010-01-01T00:00:00Z</time>
      </trkpt>
      <trkpt lat="48.21817" lon="-3.14154">
        <ele>214.8</ele>
        <time>2010-01-01T00:00:00Z</time>
      </trkpt>
      <trkpt lat="48.21811" lon="-3.14138">
        <ele>212.4</ele>
        <time>2010-01-01T00:00:00Z</time>
      </trkpt>
      <trkpt lat="48.21812" lon="-3.14124">
        <ele>211.9</ele>
        <time>2010-01-01T00:00:00Z</time>
      </trkpt>
      <trkpt lat="48.21815" lon="-3.14108">
        <ele>212.3</ele>
        <time>2010-01-01T00:00:00Z</time>
      </trkpt>
      <trkpt lat="48.2182" lon="-3.14088">
        <ele>214.2</ele>
        <time>2010-01-01T00:00:00Z</time>
      </trkpt>
      <trkpt lat="48.21822" lon="-3.14065">
        <ele>211.5</ele>
        <time>2010-01-01T00:00:00Z</time>
      </trkpt>
      <trkpt lat="48.21822" lon="-3.14043">
        <ele>209.6</ele>
        <time>2010-01-01T00:00:00Z</time>
      </trkpt>
      <trkpt lat="48.21821" lon="-3.14026">
        <ele>209.5</ele>
        <time>2010-01-01T00:00:00Z</time>
      </trkpt>
      <trkpt lat="48.2182" lon="-3.14008">
        <ele>210.5</ele>
        <time>2010-01-01T00:00:00Z</time>
      </trkpt>
      <trkpt lat="48.21823" lon="-3.13988">
        <ele>209.1</ele>
        <time>2010-01-01T00:00:00Z</time>
      </trkpt>
      <trkpt lat="48.21831" lon="-3.1397">
        <ele>207.5</ele>
        <time>2010-01-01T00:00:00Z</time>
      </trkpt>
      <trkpt lat="48.21842" lon="-3.13952">
        <ele>219</ele>
        <time>2010-01-01T00:00:00Z</time>
      </trkpt>
      <trkpt lat="48.2185" lon="-3.13943">
        <ele>219.1</ele>
        <time>2010-01-01T00:00:00Z</time>
      </trkpt>
      <trkpt lat="48.2186" lon="-3.13938">
        <ele>220</ele>
        <time>2010-01-01T00:00:00Z</time>
      </trkpt>
      <trkpt lat="48.2187" lon="-3.13919">
        <ele>221.1</ele>
        <time>2010-01-01T00:00:00Z</time>
      </trkpt>
      <trkpt lat="48.21877" lon="-3.13898">
        <ele>220.7</ele>
        <time>2010-01-01T00:00:00Z</time>
      </trkpt>
      <trkpt lat="48.21885" lon="-3.13857">
        <ele>221.1</ele>
        <time>2010-01-01T00:00:00Z</time>
      </trkpt>
      <trkpt lat="48.21892" lon="-3.1384">
        <ele>222.6</ele>
        <time>2010-01-01T00:00:00Z</time>
      </trkpt>
      <trkpt lat="48.21907" lon="-3.13825">
        <ele>224.7</ele>
        <time>2010-01-01T00:00:00Z</time>
      </trkpt>
      <trkpt lat="48.21914" lon="-3.13808">
        <ele>223</ele>
        <time>2010-01-01T00:00:00Z</time>
      </trkpt>
      <trkpt lat="48.21915" lon="-3.13802">
        <ele>222.6</ele>
        <time>2010-01-01T00:00:00Z</time>
      </trkpt>
      <trkpt lat="48.21917" lon="-3.13792">
        <ele>232.6</ele>
        <time>2010-01-01T00:00:00Z</time>
      </trkpt>
      <trkpt lat="48.2192" lon="-3.1378">
        <ele>232.4</ele>
        <time>2010-01-01T00:00:00Z</time>
      </trkpt>
      <trkpt lat="48.21925" lon="-3.13774">
        <ele>232.4</ele>
        <time>2010-01-01T00:00:00Z</time>
      </trkpt>
      <trkpt lat="48.21934" lon="-3.13763">
        <ele>232.4</ele>
        <time>2010-01-01T00:00:00Z</time>
      </trkpt>
      <trkpt lat="48.21943" lon="-3.13754">
        <ele>233.2</ele>
        <time>2010-01-01T00:00:00Z</time>
      </trkpt>
      <trkpt lat="48.21951" lon="-3.13749">
        <ele>234.1</ele>
        <time>2010-01-01T00:00:00Z</time>
      </trkpt>
      <trkpt lat="48.21964" lon="-3.13739">
        <ele>235.4</ele>
        <time>2010-01-01T00:00:00Z</time>
      </trkpt>
      <trkpt lat="48.21975" lon="-3.13724">
        <ele>236.1</ele>
        <time>2010-01-01T00:00:00Z</time>
      </trkpt>
      <trkpt lat="48.21977" lon="-3.1372">
        <ele>236.1</ele>
        <time>2010-01-01T00:00:00Z</time>
      </trkpt>
      <trkpt lat="48.21975" lon="-3.13711">
        <ele>235.9</ele>
        <time>2010-01-01T00:00:00Z</time>
      </trkpt>
      <trkpt lat="48.21971" lon="-3.13692">
        <ele>235.7</ele>
        <time>2010-01-01T00:00:00Z</time>
      </trkpt>
      <trkpt lat="48.2197" lon="-3.13684">
        <ele>235.7</ele>
        <time>2010-01-01T00:00:00Z</time>
      </trkpt>
      <trkpt lat="48.2197" lon="-3.13672">
        <ele>235.8</ele>
        <time>2010-01-01T00:00:00Z</time>
      </trkpt>
      <trkpt lat="48.21969" lon="-3.1366">
        <ele>236.3</ele>
        <time>2010-01-01T00:00:00Z</time>
      </trkpt>
      <trkpt lat="48.21967" lon="-3.1365">
        <ele>236.1</ele>
        <time>2010-01-01T00:00:00Z</time>
      </trkpt>
      <trkpt lat="48.21966" lon="-3.1364">
        <ele>236.1</ele>
        <time>2010-01-01T00:00:00Z</time>
      </trkpt>
      <trkpt lat="48.21962" lon="-3.13622">
        <ele>236.1</ele>
        <time>2010-01-01T00:00:00Z</time>
      </trkpt>
      <trkpt lat="48.2196" lon="-3.13604">
        <ele>236.2</ele>
        <time>2010-01-01T00:00:00Z</time>
      </trkpt>
      <trkpt lat="48.21961" lon="-3.13594">
        <ele>236.4</ele>
        <time>2010-01-01T00:00:00Z</time>
      </trkpt>
      <trkpt lat="48.2196" lon="-3.13584">
        <ele>236.4</ele>
        <time>2010-01-01T00:00:00Z</time>
      </trkpt>
      <trkpt lat="48.21956" lon="-3.13567">
        <ele>238</ele>
        <time>2010-01-01T00:00:00Z</time>
      </trkpt>
      <trkpt lat="48.21955" lon="-3.13554">
        <ele>238.2</ele>
        <time>2010-01-01T00:00:00Z</time>
      </trkpt>
      <trkpt lat="48.21954" lon="-3.13538">
        <ele>238.5</ele>
        <time>2010-01-01T00:00:00Z</time>
      </trkpt>
      <trkpt lat="48.21951" lon="-3.13528">
        <ele>238.5</ele>
        <time>2010-01-01T00:00:00Z</time>
      </trkpt>
      <trkpt lat="48.21948" lon="-3.13522">
        <ele>238.3</ele>
        <time>2010-01-01T00:00:00Z</time>
      </trkpt>
      <trkpt lat="48.21943" lon="-3.13519">
        <ele>238</ele>
        <time>2010-01-01T00:00:00Z</time>
      </trkpt>
      <trkpt lat="48.21938" lon="-3.1351">
        <ele>237.5</ele>
        <time>2010-01-01T00:00:00Z</time>
      </trkpt>
      <trkpt lat="48.21932" lon="-3.13496">
        <ele>237.9</ele>
        <time>2010-01-01T00:00:00Z</time>
      </trkpt>
      <trkpt lat="48.21928" lon="-3.13484">
        <ele>238.1</ele>
        <time>2010-01-01T00:00:00Z</time>
      </trkpt>
      <trkpt lat="48.21924" lon="-3.13475">
        <ele>238.5</ele>
        <time>2010-01-01T00:00:00Z</time>
      </trkpt>
      <trkpt lat="48.21922" lon="-3.13465">
        <ele>238.8</ele>
        <time>2010-01-01T00:00:00Z</time>
      </trkpt>
      <trkpt lat="48.21921" lon="-3.13451">
        <ele>238.8</ele>
        <time>2010-01-01T00:00:00Z</time>
      </trkpt>
      <trkpt lat="48.21922" lon="-3.13439">
        <ele>238.3</ele>
        <time>2010-01-01T00:00:00Z</time>
      </trkpt>
      <trkpt lat="48.21921" lon="-3.13428">
        <ele>237.2</ele>
        <time>2010-01-01T00:00:00Z</time>
      </trkpt>
      <trkpt lat="48.21921" lon="-3.13422">
        <ele>236.5</ele>
        <time>2010-01-01T00:00:00Z</time>
      </trkpt>
      <trkpt lat="48.21924" lon="-3.13413">
        <ele>236.9</ele>
        <time>2010-01-01T00:00:00Z</time>
      </trkpt>
      <trkpt lat="48.21925" lon="-3.13407">
        <ele>237.7</ele>
        <time>2010-01-01T00:00:00Z</time>
      </trkpt>
      <trkpt lat="48.21924" lon="-3.13398">
        <ele>238.5</ele>
        <time>2010-01-01T00:00:00Z</time>
      </trkpt>
      <trkpt lat="48.21925" lon="-3.13389">
        <ele>239.1</ele>
        <time>2010-01-01T00:00:00Z</time>
      </trkpt>
      <trkpt lat="48.21929" lon="-3.1337">
        <ele>239.6</ele>
        <time>2010-01-01T00:00:00Z</time>
      </trkpt>
      <trkpt lat="48.21933" lon="-3.13349">
        <ele>239.1</ele>
        <time>2010-01-01T00:00:00Z</time>
      </trkpt>
      <trkpt lat="48.21934" lon="-3.13333">
        <ele>238.8</ele>
        <time>2010-01-01T00:00:00Z</time>
      </trkpt>
      <trkpt lat="48.21934" lon="-3.13321">
        <ele>239.3</ele>
        <time>2010-01-01T00:00:00Z</time>
      </trkpt>
      <trkpt lat="48.21936" lon="-3.13307">
        <ele>240.3</ele>
        <time>2010-01-01T00:00:00Z</time>
      </trkpt>
      <trkpt lat="48.21935" lon="-3.13297">
        <ele>240.5</ele>
        <time>2010-01-01T00:00:00Z</time>
      </trkpt>
      <trkpt lat="48.21934" lon="-3.13287">
        <ele>240.6</ele>
        <time>2010-01-01T00:00:00Z</time>
      </trkpt>
      <trkpt lat="48.21933" lon="-3.13269">
        <ele>240.2</ele>
        <time>2010-01-01T00:00:00Z</time>
      </trkpt>
      <trkpt lat="48.2193" lon="-3.13248">
        <ele>238.7</ele>
        <time>2010-01-01T00:00:00Z</time>
      </trkpt>
      <trkpt lat="48.21929" lon="-3.13245">
        <ele>238.6</ele>
        <time>2010-01-01T00:00:00Z</time>
      </trkpt>
      <trkpt lat="48.21928" lon="-3.13241">
        <ele>238.7</ele>
        <time>2010-01-01T00:00:00Z</time>
      </trkpt>
      <trkpt lat="48.21927" lon="-3.13232">
        <ele>238.9</ele>
        <time>2010-01-01T00:00:00Z</time>
      </trkpt>
      <trkpt lat="48.21927" lon="-3.13224">
        <ele>239.1</ele>
        <time>2010-01-01T00:00:00Z</time>
      </trkpt>
      <trkpt lat="48.21926" lon="-3.13214">
        <ele>239</ele>
        <time>2010-01-01T00:00:00Z</time>
      </trkpt>
      <trkpt lat="48.21927" lon="-3.13203">
        <ele>238.7</ele>
        <time>2010-01-01T00:00:00Z</time>
      </trkpt>
      <trkpt lat="48.21927" lon="-3.13189">
        <ele>237.7</ele>
        <time>2010-01-01T00:00:00Z</time>
      </trkpt>
      <trkpt lat="48.21927" lon="-3.13176">
        <ele>236.3</ele>
        <time>2010-01-01T00:00:00Z</time>
      </trkpt>
      <trkpt lat="48.21926" lon="-3.13169">
        <ele>235.5</ele>
        <time>2010-01-01T00:00:00Z</time>
      </trkpt>
      <trkpt lat="48.21925" lon="-3.1316">
        <ele>234.7</ele>
        <time>2010-01-01T00:00:00Z</time>
      </trkpt>
      <trkpt lat="48.21924" lon="-3.1315">
        <ele>235.4</ele>
        <time>2010-01-01T00:00:00Z</time>
      </trkpt>
      <trkpt lat="48.21926" lon="-3.13145">
        <ele>235.7</ele>
        <time>2010-01-01T00:00:00Z</time>
      </trkpt>
      <trkpt lat="48.21928" lon="-3.13134">
        <ele>236</ele>
        <time>2010-01-01T00:00:00Z</time>
      </trkpt>
      <trkpt lat="48.21931" lon="-3.13126">
        <ele>236.1</ele>
        <time>2010-01-01T00:00:00Z</time>
      </trkpt>
      <trkpt lat="48.21931" lon="-3.13116">
        <ele>235.8</ele>
        <time>2010-01-01T00:00:00Z</time>
      </trkpt>
      <trkpt lat="48.21937" lon="-3.13105">
        <ele>235.7</ele>
        <time>2010-01-01T00:00:00Z</time>
      </trkpt>
      <trkpt lat="48.2194" lon="-3.131">
        <ele>235.7</ele>
        <time>2010-01-01T00:00:00Z</time>
      </trkpt>
      <trkpt lat="48.21945" lon="-3.13093">
        <ele>236</ele>
        <time>2010-01-01T00:00:00Z</time>
      </trkpt>
      <trkpt lat="48.21947" lon="-3.13085">
        <ele>236.2</ele>
        <time>2010-01-01T00:00:00Z</time>
      </trkpt>
      <trkpt lat="48.21948" lon="-3.13078">
        <ele>235.7</ele>
        <time>2010-01-01T00:00:00Z</time>
      </trkpt>
      <trkpt lat="48.21954" lon="-3.13069">
        <ele>236.5</ele>
        <time>2010-01-01T00:00:00Z</time>
      </trkpt>
      <trkpt lat="48.2196" lon="-3.13059">
        <ele>237.2</ele>
        <time>2010-01-01T00:00:00Z</time>
      </trkpt>
      <trkpt lat="48.21961" lon="-3.13051">
        <ele>237.2</ele>
        <time>2010-01-01T00:00:00Z</time>
      </trkpt>
      <trkpt lat="48.21961" lon="-3.13044">
        <ele>237.2</ele>
        <time>2010-01-01T00:00:00Z</time>
      </trkpt>
      <trkpt lat="48.21964" lon="-3.13036">
        <ele>237.5</ele>
        <time>2010-01-01T00:00:00Z</time>
      </trkpt>
      <trkpt lat="48.21968" lon="-3.13032">
        <ele>237.8</ele>
        <time>2010-01-01T00:00:00Z</time>
      </trkpt>
      <trkpt lat="48.21973" lon="-3.13022">
        <ele>238.5</ele>
        <time>2010-01-01T00:00:00Z</time>
      </trkpt>
      <trkpt lat="48.21979" lon="-3.13013">
        <ele>239.4</ele>
        <time>2010-01-01T00:00:00Z</time>
      </trkpt>
      <trkpt lat="48.21989" lon="-3.13004">
        <ele>241.3</ele>
        <time>2010-01-01T00:00:00Z</time>
      </trkpt>
      <trkpt lat="48.21993" lon="-3.13001">
        <ele>242.2</ele>
        <time>2010-01-01T00:00:00Z</time>
      </trkpt>
      <trkpt lat="48.2199" lon="-3.12993">
        <ele>240.6</ele>
        <time>2010-01-01T00:00:00Z</time>
      </trkpt>
      <trkpt lat="48.21994" lon="-3.12981">
        <ele>239.4</ele>
        <time>2010-01-01T00:00:00Z</time>
      </trkpt>
      <trkpt lat="48.21996" lon="-3.12977">
        <ele>239</ele>
        <time>2010-01-01T00:00:00Z</time>
      </trkpt>
      <trkpt lat="48.21998" lon="-3.12975">
        <ele>238.9</ele>
        <time>2010-01-01T00:00:00Z</time>
      </trkpt>
      <trkpt lat="48.22001" lon="-3.12977">
        <ele>243.5</ele>
        <time>2010-01-01T00:00:00Z</time>
      </trkpt>
      <trkpt lat="48.22004" lon="-3.12979">
        <ele>243.5</ele>
        <time>2010-01-01T00:00:00Z</time>
      </trkpt>
      <trkpt lat="48.22009" lon="-3.12981">
        <ele>243.6</ele>
        <time>2010-01-01T00:00:00Z</time>
      </trkpt>
      <trkpt lat="48.22013" lon="-3.12977">
        <ele>243.5</ele>
        <time>2010-01-01T00:00:00Z</time>
      </trkpt>
      <trkpt lat="48.2202" lon="-3.1297">
        <ele>243.4</ele>
        <time>2010-01-01T00:00:00Z</time>
      </trkpt>
      <trkpt lat="48.22035" lon="-3.12967">
        <ele>243.5</ele>
        <time>2010-01-01T00:00:00Z</time>
      </trkpt>
      <trkpt lat="48.22049" lon="-3.12964">
        <ele>243.7</ele>
        <time>2010-01-01T00:00:00Z</time>
      </trkpt>
      <trkpt lat="48.22064" lon="-3.12958">
        <ele>243.9</ele>
        <time>2010-01-01T00:00:00Z</time>
      </trkpt>
      <trkpt lat="48.22068" lon="-3.12951">
        <ele>243.8</ele>
        <time>2010-01-01T00:00:00Z</time>
      </trkpt>
      <trkpt lat="48.2207" lon="-3.12947">
        <ele>243.8</ele>
        <time>2010-01-01T00:00:00Z</time>
      </trkpt>
      <trkpt lat="48.22063" lon="-3.12936">
        <ele>243.6</ele>
        <time>2010-01-01T00:00:00Z</time>
      </trkpt>
      <trkpt lat="48.22058" lon="-3.12922">
        <ele>243.4</ele>
        <time>2010-01-01T00:00:00Z</time>
      </trkpt>
      <trkpt lat="48.22054" lon="-3.12899">
        <ele>240.8</ele>
        <time>2010-01-01T00:00:00Z</time>
      </trkpt>
      <trkpt lat="48.22055" lon="-3.12859">
        <ele>239.6</ele>
        <time>2010-01-01T00:00:00Z</time>
      </trkpt>
      <trkpt lat="48.22054" lon="-3.12851">
        <ele>239.4</ele>
        <time>2010-01-01T00:00:00Z</time>
      </trkpt>
      <trkpt lat="48.22057" lon="-3.12847">
        <ele>239.4</ele>
        <time>2010-01-01T00:00:00Z</time>
      </trkpt>
      <trkpt lat="48.22057" lon="-3.12829">
        <ele>236.5</ele>
        <time>2010-01-01T00:00:00Z</time>
      </trkpt>
      <trkpt lat="48.22059" lon="-3.12814">
        <ele>236.2</ele>
        <time>2010-01-01T00:00:00Z</time>
      </trkpt>
      <trkpt lat="48.22064" lon="-3.12797">
        <ele>235.7</ele>
        <time>2010-01-01T00:00:00Z</time>
      </trkpt>
      <trkpt lat="48.22064" lon="-3.1279">
        <ele>235.4</ele>
        <time>2010-01-01T00:00:00Z</time>
      </trkpt>
      <trkpt lat="48.22067" lon="-3.12783">
        <ele>235.3</ele>
        <time>2010-01-01T00:00:00Z</time>
      </trkpt>
      <trkpt lat="48.22074" lon="-3.12778">
        <ele>235.3</ele>
        <time>2010-01-01T00:00:00Z</time>
      </trkpt>
      <trkpt lat="48.22079" lon="-3.12778">
        <ele>235.3</ele>
        <time>2010-01-01T00:00:00Z</time>
      </trkpt>
      <trkpt lat="48.22096" lon="-3.12777">
        <ele>237.5</ele>
        <time>2010-01-01T00:00:00Z</time>
      </trkpt>
      <trkpt lat="48.22104" lon="-3.12766">
        <ele>237.3</ele>
        <time>2010-01-01T00:00:00Z</time>
      </trkpt>
      <trkpt lat="48.22114" lon="-3.1275">
        <ele>236.5</ele>
        <time>2010-01-01T00:00:00Z</time>
      </trkpt>
      <trkpt lat="48.22121" lon="-3.12746">
        <ele>235.1</ele>
        <time>2010-01-01T00:00:00Z</time>
      </trkpt>
      <trkpt lat="48.22137" lon="-3.12739">
        <ele>235.6</ele>
        <time>2010-01-01T00:00:00Z</time>
      </trkpt>
      <trkpt lat="48.22154" lon="-3.12731">
        <ele>236.2</ele>
        <time>2010-01-01T00:00:00Z</time>
      </trkpt>
      <trkpt lat="48.22164" lon="-3.12717">
        <ele>235.5</ele>
        <time>2010-01-01T00:00:00Z</time>
      </trkpt>
      <trkpt lat="48.22172" lon="-3.12707">
        <ele>237.3</ele>
        <time>2010-01-01T00:00:00Z</time>
      </trkpt>
      <trkpt lat="48.22188" lon="-3.12701">
        <ele>237.2</ele>
        <time>2010-01-01T00:00:00Z</time>
      </trkpt>
      <trkpt lat="48.222" lon="-3.12685">
        <ele>237.1</ele>
        <time>2010-01-01T00:00:00Z</time>
      </trkpt>
      <trkpt lat="48.22206" lon="-3.12679">
        <ele>237.3</ele>
        <time>2010-01-01T00:00:00Z</time>
      </trkpt>
      <trkpt lat="48.22206" lon="-3.12679">
        <ele>237.3</ele>
        <time>2010-01-01T00:00:00Z</time>
      </trkpt>
      <trkpt lat="48.22209" lon="-3.12676">
        <ele>237.4</ele>
        <time>2010-01-01T00:00:00Z</time>
      </trkpt>
      <trkpt lat="48.22201" lon="-3.1267">
        <ele>237</ele>
        <time>2010-01-01T00:00:00Z</time>
      </trkpt>
      <trkpt lat="48.22193" lon="-3.12669">
        <ele>236.5</ele>
        <time>2010-01-01T00:00:00Z</time>
      </trkpt>
      <trkpt lat="48.2218" lon="-3.12669">
        <ele>235.6</ele>
        <time>2010-01-01T00:00:00Z</time>
      </trkpt>
      <trkpt lat="48.22167" lon="-3.12669">
        <ele>234.4</ele>
        <time>2010-01-01T00:00:00Z</time>
      </trkpt>
      <trkpt lat="48.2216" lon="-3.12668">
        <ele>234</ele>
        <time>2010-01-01T00:00:00Z</time>
      </trkpt>
      <trkpt lat="48.22151" lon="-3.12662">
        <ele>231.3</ele>
        <time>2010-01-01T00:00:00Z</time>
      </trkpt>
      <trkpt lat="48.2214" lon="-3.12651">
        <ele>229.9</ele>
        <time>2010-01-01T00:00:00Z</time>
      </trkpt>
      <trkpt lat="48.22129" lon="-3.12642">
        <ele>229</ele>
        <time>2010-01-01T00:00:00Z</time>
      </trkpt>
      <trkpt lat="48.22118" lon="-3.12628">
        <ele>228.1</ele>
        <time>2010-01-01T00:00:00Z</time>
      </trkpt>
      <trkpt lat="48.22107" lon="-3.12616">
        <ele>227.2</ele>
        <time>2010-01-01T00:00:00Z</time>
      </trkpt>
      <trkpt lat="48.22081" lon="-3.12599">
        <ele>222.7</ele>
        <time>2010-01-01T00:00:00Z</time>
      </trkpt>
      <trkpt lat="48.22066" lon="-3.12591">
        <ele>222.6</ele>
        <time>2010-01-01T00:00:00Z</time>
      </trkpt>
      <trkpt lat="48.22049" lon="-3.12573">
        <ele>214.8</ele>
        <time>2010-01-01T00:00:00Z</time>
      </trkpt>
      <trkpt lat="48.22046" lon="-3.12566">
        <ele>214.1</ele>
        <time>2010-01-01T00:00:00Z</time>
      </trkpt>
      <trkpt lat="48.2201" lon="-3.12549">
        <ele>211.8</ele>
        <time>2010-01-01T00:00:00Z</time>
      </trkpt>
      <trkpt lat="48.22006" lon="-3.1255">
        <ele>211.9</ele>
        <time>2010-01-01T00:00:00Z</time>
      </trkpt>
      <trkpt lat="48.21995" lon="-3.12551">
        <ele>206</ele>
        <time>2010-01-01T00:00:00Z</time>
      </trkpt>
      <trkpt lat="48.21984" lon="-3.12546">
        <ele>204.4</ele>
        <time>2010-01-01T00:00:00Z</time>
      </trkpt>
      <trkpt lat="48.21967" lon="-3.12537">
        <ele>202.2</ele>
        <time>2010-01-01T00:00:00Z</time>
      </trkpt>
      <trkpt lat="48.21946" lon="-3.12523">
        <ele>199.5</ele>
        <time>2010-01-01T00:00:00Z</time>
      </trkpt>
      <trkpt lat="48.21922" lon="-3.12513">
        <ele>195.5</ele>
        <time>2010-01-01T00:00:00Z</time>
      </trkpt>
      <trkpt lat="48.21906" lon="-3.12508">
        <ele>188.1</ele>
        <time>2010-01-01T00:00:00Z</time>
      </trkpt>
      <trkpt lat="48.21897" lon="-3.12512">
        <ele>186.5</ele>
        <time>2010-01-01T00:00:00Z</time>
      </trkpt>
      <trkpt lat="48.21886" lon="-3.12516">
        <ele>184.7</ele>
        <time>2010-01-01T00:00:00Z</time>
      </trkpt>
      <trkpt lat="48.21871" lon="-3.12525">
        <ele>182.6</ele>
        <time>2010-01-01T00:00:00Z</time>
      </trkpt>
      <trkpt lat="48.2187" lon="-3.12556">
        <ele>183.9</ele>
        <time>2010-01-01T00:00:00Z</time>
      </trkpt>
      <trkpt lat="48.21879" lon="-3.12608">
        <ele>190.9</ele>
        <time>2010-01-01T00:00:00Z</time>
      </trkpt>
      <trkpt lat="48.21878" lon="-3.12641">
        <ele>191.8</ele>
        <time>2010-01-01T00:00:00Z</time>
      </trkpt>
      <trkpt lat="48.21875" lon="-3.12659">
        <ele>191.7</ele>
        <time>2010-01-01T00:00:00Z</time>
      </trkpt>
      <trkpt lat="48.21867" lon="-3.12681">
        <ele>194.9</ele>
        <time>2010-01-01T00:00:00Z</time>
      </trkpt>
      <trkpt lat="48.21865" lon="-3.12688">
        <ele>194.9</ele>
        <time>2010-01-01T00:00:00Z</time>
      </trkpt>
      <trkpt lat="48.21862" lon="-3.12695">
        <ele>195</ele>
        <time>2010-01-01T00:00:00Z</time>
      </trkpt>
      <trkpt lat="48.2186" lon="-3.12703">
        <ele>195.3</ele>
        <time>2010-01-01T00:00:00Z</time>
      </trkpt>
      <trkpt lat="48.21856" lon="-3.12709">
        <ele>195.1</ele>
        <time>2010-01-01T00:00:00Z</time>
      </trkpt>
      <trkpt lat="48.21855" lon="-3.12713">
        <ele>195.2</ele>
        <time>2010-01-01T00:00:00Z</time>
      </trkpt>
      <trkpt lat="48.21852" lon="-3.12719">
        <ele>195</ele>
        <time>2010-01-01T00:00:00Z</time>
      </trkpt>
      <trkpt lat="48.21848" lon="-3.12726">
        <ele>194.5</ele>
        <time>2010-01-01T00:00:00Z</time>
      </trkpt>
      <trkpt lat="48.21843" lon="-3.1273">
        <ele>193.7</ele>
        <time>2010-01-01T00:00:00Z</time>
      </trkpt>
      <trkpt lat="48.21838" lon="-3.12734">
        <ele>192.9</ele>
        <time>2010-01-01T00:00:00Z</time>
      </trkpt>
      <trkpt lat="48.21833" lon="-3.12737">
        <ele>182.5</ele>
        <time>2010-01-01T00:00:00Z</time>
      </trkpt>
      <trkpt lat="48.21831" lon="-3.12742">
        <ele>184.3</ele>
        <time>2010-01-01T00:00:00Z</time>
      </trkpt>
      <trkpt lat="48.21828" lon="-3.12749">
        <ele>185.7</ele>
        <time>2010-01-01T00:00:00Z</time>
      </trkpt>
      <trkpt lat="48.21824" lon="-3.12757">
        <ele>186</ele>
        <time>2010-01-01T00:00:00Z</time>
      </trkpt>
      <trkpt lat="48.21822" lon="-3.12764">
        <ele>185.1</ele>
        <time>2010-01-01T00:00:00Z</time>
      </trkpt>
      <trkpt lat="48.21819" lon="-3.12769">
        <ele>184.5</ele>
        <time>2010-01-01T00:00:00Z</time>
      </trkpt>
      <trkpt lat="48.21815" lon="-3.12775">
        <ele>183.9</ele>
        <time>2010-01-01T00:00:00Z</time>
      </trkpt>
      <trkpt lat="48.21811" lon="-3.12784">
        <ele>183.6</ele>
        <time>2010-01-01T00:00:00Z</time>
      </trkpt>
      <trkpt lat="48.21806" lon="-3.12791">
        <ele>183.4</ele>
        <time>2010-01-01T00:00:00Z</time>
      </trkpt>
      <trkpt lat="48.21803" lon="-3.12798">
        <ele>183.5</ele>
        <time>2010-01-01T00:00:00Z</time>
      </trkpt>
      <trkpt lat="48.21799" lon="-3.12802">
        <ele>183.1</ele>
        <time>2010-01-01T00:00:00Z</time>
      </trkpt>
      <trkpt lat="48.21794" lon="-3.12811">
        <ele>182.7</ele>
        <time>2010-01-01T00:00:00Z</time>
      </trkpt>
      <trkpt lat="48.21792" lon="-3.12817">
        <ele>182.6</ele>
        <time>2010-01-01T00:00:00Z</time>
      </trkpt>
      <trkpt lat="48.21789" lon="-3.12821">
        <ele>182</ele>
        <time>2010-01-01T00:00:00Z</time>
      </trkpt>
      <trkpt lat="48.21785" lon="-3.12826">
        <ele>181.2</ele>
        <time>2010-01-01T00:00:00Z</time>
      </trkpt>
      <trkpt lat="48.21781" lon="-3.12833">
        <ele>180.3</ele>
        <time>2010-01-01T00:00:00Z</time>
      </trkpt>
      <trkpt lat="48.21778" lon="-3.12838">
        <ele>185.2</ele>
        <time>2010-01-01T00:00:00Z</time>
      </trkpt>
      <trkpt lat="48.21775" lon="-3.12845">
        <ele>184.8</ele>
        <time>2010-01-01T00:00:00Z</time>
      </trkpt>
      <trkpt lat="48.21772" lon="-3.12849">
        <ele>184.5</ele>
        <time>2010-01-01T00:00:00Z</time>
      </trkpt>
      <trkpt lat="48.21769" lon="-3.12853">
        <ele>184.4</ele>
        <time>2010-01-01T00:00:00Z</time>
      </trkpt>
      <trkpt lat="48.21765" lon="-3.12859">
        <ele>184.6</ele>
        <time>2010-01-01T00:00:00Z</time>
      </trkpt>
      <trkpt lat="48.21761" lon="-3.12865">
        <ele>185</ele>
        <time>2010-01-01T00:00:00Z</time>
      </trkpt>
      <trkpt lat="48.21758" lon="-3.12872">
        <ele>185.6</ele>
        <time>2010-01-01T00:00:00Z</time>
      </trkpt>
      <trkpt lat="48.21756" lon="-3.12875">
        <ele>185.7</ele>
        <time>2010-01-01T00:00:00Z</time>
      </trkpt>
      <trkpt lat="48.21752" lon="-3.12883">
        <ele>186</ele>
        <time>2010-01-01T00:00:00Z</time>
      </trkpt>
      <trkpt lat="48.21747" lon="-3.12888">
        <ele>171.5</ele>
        <time>2010-01-01T00:00:00Z</time>
      </trkpt>
      <trkpt lat="48.21744" lon="-3.12894">
        <ele>172.4</ele>
        <time>2010-01-01T00:00:00Z</time>
      </trkpt>
      <trkpt lat="48.21742" lon="-3.12901">
        <ele>173.9</ele>
        <time>2010-01-01T00:00:00Z</time>
      </trkpt>
      <trkpt lat="48.2174" lon="-3.12909">
        <ele>175.5</ele>
        <time>2010-01-01T00:00:00Z</time>
      </trkpt>
      <trkpt lat="48.21737" lon="-3.12917">
        <ele>178.3</ele>
        <time>2010-01-01T00:00:00Z</time>
      </trkpt>
      <trkpt lat="48.21735" lon="-3.12923">
        <ele>177.7</ele>
        <time>2010-01-01T00:00:00Z</time>
      </trkpt>
      <trkpt lat="48.21733" lon="-3.1293">
        <ele>176.9</ele>
        <time>2010-01-01T00:00:00Z</time>
      </trkpt>
      <trkpt lat="48.2173" lon="-3.12935">
        <ele>176.2</ele>
        <time>2010-01-01T00:00:00Z</time>
      </trkpt>
      <trkpt lat="48.2173" lon="-3.12943">
        <ele>176</ele>
        <time>2010-01-01T00:00:00Z</time>
      </trkpt>
      <trkpt lat="48.21728" lon="-3.1295">
        <ele>175.8</ele>
        <time>2010-01-01T00:00:00Z</time>
      </trkpt>
      <trkpt lat="48.21724" lon="-3.1296">
        <ele>175.7</ele>
        <time>2010-01-01T00:00:00Z</time>
      </trkpt>
      <trkpt lat="48.21721" lon="-3.12964">
        <ele>175.5</ele>
        <time>2010-01-01T00:00:00Z</time>
      </trkpt>
      <trkpt lat="48.21719" lon="-3.1297">
        <ele>175.5</ele>
        <time>2010-01-01T00:00:00Z</time>
      </trkpt>
      <trkpt lat="48.21715" lon="-3.12973">
        <ele>175</ele>
        <time>2010-01-01T00:00:00Z</time>
      </trkpt>
      <trkpt lat="48.21712" lon="-3.12975">
        <ele>174.7</ele>
        <time>2010-01-01T00:00:00Z</time>
      </trkpt>
      <trkpt lat="48.21705" lon="-3.12976">
        <ele>173.6</ele>
        <time>2010-01-01T00:00:00Z</time>
      </trkpt>
      <trkpt lat="48.21698" lon="-3.12978">
        <ele>172.5</ele>
        <time>2010-01-01T00:00:00Z</time>
      </trkpt>
      <trkpt lat="48.21693" lon="-3.12977">
        <ele>171.8</ele>
        <time>2010-01-01T00:00:00Z</time>
      </trkpt>
      <trkpt lat="48.21688" lon="-3.12976">
        <ele>171.1</ele>
        <time>2010-01-01T00:00:00Z</time>
      </trkpt>
      <trkpt lat="48.21684" lon="-3.12976">
        <ele>170.6</ele>
        <time>2010-01-01T00:00:00Z</time>
      </trkpt>
      <trkpt lat="48.21678" lon="-3.12977">
        <ele>169.9</ele>
        <time>2010-01-01T00:00:00Z</time>
      </trkpt>
      <trkpt lat="48.21672" lon="-3.12977">
        <ele>169.4</ele>
        <time>2010-01-01T00:00:00Z</time>
      </trkpt>
      <trkpt lat="48.21667" lon="-3.12977">
        <ele>169.1</ele>
        <time>2010-01-01T00:00:00Z</time>
      </trkpt>
      <trkpt lat="48.2166" lon="-3.12979">
        <ele>159.6</ele>
        <time>2010-01-01T00:00:00Z</time>
      </trkpt>
      <trkpt lat="48.21655" lon="-3.12979">
        <ele>159.2</ele>
        <time>2010-01-01T00:00:00Z</time>
      </trkpt>
      <trkpt lat="48.2165" lon="-3.12981">
        <ele>159</ele>
        <time>2010-01-01T00:00:00Z</time>
      </trkpt>
      <trkpt lat="48.21646" lon="-3.1298">
        <ele>158.4</ele>
        <time>2010-01-01T00:00:00Z</time>
      </trkpt>
      <trkpt lat="48.21641" lon="-3.12981">
        <ele>157.9</ele>
        <time>2010-01-01T00:00:00Z</time>
      </trkpt>
      <trkpt lat="48.21637" lon="-3.12981">
        <ele>157.5</ele>
        <time>2010-01-01T00:00:00Z</time>
      </trkpt>
      <trkpt lat="48.21632" lon="-3.12982">
        <ele>157</ele>
        <time>2010-01-01T00:00:00Z</time>
      </trkpt>
      <trkpt lat="48.21627" lon="-3.12986">
        <ele>156.6</ele>
        <time>2010-01-01T00:00:00Z</time>
      </trkpt>
      <trkpt lat="48.21623" lon="-3.12991">
        <ele>156.3</ele>
        <time>2010-01-01T00:00:00Z</time>
      </trkpt>
      <trkpt lat="48.2162" lon="-3.12992">
        <ele>156</ele>
        <time>2010-01-01T00:00:00Z</time>
      </trkpt>
      <trkpt lat="48.2162" lon="-3.12992">
        <ele>156</ele>
        <time>2010-01-01T00:00:00Z</time>
      </trkpt>
      <trkpt lat="48.21617" lon="-3.12993">
        <ele>155.7</ele>
        <time>2010-01-01T00:00:00Z</time>
      </trkpt>
      <trkpt lat="48.21615" lon="-3.12968">
        <ele>155.1</ele>
        <time>2010-01-01T00:00:00Z</time>
      </trkpt>
      <trkpt lat="48.21614" lon="-3.12932">
        <ele>153.4</ele>
        <time>2010-01-01T00:00:00Z</time>
      </trkpt>
      <trkpt lat="48.21612" lon="-3.12911">
        <ele>148.7</ele>
        <time>2010-01-01T00:00:00Z</time>
      </trkpt>
      <trkpt lat="48.21606" lon="-3.12896">
        <ele>148.1</ele>
        <time>2010-01-01T00:00:00Z</time>
      </trkpt>
      <trkpt lat="48.21604" lon="-3.1289">
        <ele>147.8</ele>
        <time>2010-01-01T00:00:00Z</time>
      </trkpt>
      <trkpt lat="48.21602" lon="-3.12885">
        <ele>147.6</ele>
        <time>2010-01-01T00:00:00Z</time>
      </trkpt>
      <trkpt lat="48.21602" lon="-3.12873">
        <ele>147</ele>
        <time>2010-01-01T00:00:00Z</time>
      </trkpt>
      <trkpt lat="48.21605" lon="-3.12854">
        <ele>145.9</ele>
        <time>2010-01-01T00:00:00Z</time>
      </trkpt>
      <trkpt lat="48.21607" lon="-3.12835">
        <ele>145</ele>
        <time>2010-01-01T00:00:00Z</time>
      </trkpt>
      <trkpt lat="48.21605" lon="-3.12822">
        <ele>141.5</ele>
        <time>2010-01-01T00:00:00Z</time>
      </trkpt>
      <trkpt lat="48.216" lon="-3.12811">
        <ele>141.3</ele>
        <time>2010-01-01T00:00:00Z</time>
      </trkpt>
      <trkpt lat="48.21593" lon="-3.12804">
        <ele>140.9</ele>
        <time>2010-01-01T00:00:00Z</time>
      </trkpt>
      <trkpt lat="48.21581" lon="-3.12801">
        <ele>135.5</ele>
        <time>2010-01-01T00:00:00Z</time>
      </trkpt>
      <trkpt lat="48.21548" lon="-3.12798">
        <ele>134.3</ele>
        <time>2010-01-01T00:00:00Z</time>
      </trkpt>
      <trkpt lat="48.21516" lon="-3.12799">
        <ele>133.2</ele>
        <time>2010-01-01T00:00:00Z</time>
      </trkpt>
      <trkpt lat="48.21499" lon="-3.12799">
        <ele>130.7</ele>
        <time>2010-01-01T00:00:00Z</time>
      </trkpt>
      <trkpt lat="48.21499" lon="-3.12799">
        <ele>130.7</ele>
        <time>2010-01-01T00:00:00Z</time>
      </trkpt>
      <trkpt lat="48.21494" lon="-3.128">
        <ele>130.7</ele>
        <time>2010-01-01T00:00:00Z</time>
      </trkpt>
      <trkpt lat="48.21462" lon="-3.12797">
        <ele>130.5</ele>
        <time>2010-01-01T00:00:00Z</time>
      </trkpt>
      <trkpt lat="48.21441" lon="-3.12796">
        <ele>130.4</ele>
        <time>2010-01-01T00:00:00Z</time>
      </trkpt>
      <trkpt lat="48.2142" lon="-3.12796">
        <ele>130.3</ele>
        <time>2010-01-01T00:00:00Z</time>
      </trkpt>
      <trkpt lat="48.2141" lon="-3.12798">
        <ele>129.7</ele>
        <time>2010-01-01T00:00:00Z</time>
      </trkpt>
      <trkpt lat="48.214" lon="-3.12802">
        <ele>129.6</ele>
        <time>2010-01-01T00:00:00Z</time>
      </trkpt>
      <trkpt lat="48.21385" lon="-3.12806">
        <ele>129.5</ele>
        <time>2010-01-01T00:00:00Z</time>
      </trkpt>
      <trkpt lat="48.21368" lon="-3.12813">
        <ele>129.3</ele>
        <time>2010-01-01T00:00:00Z</time>
      </trkpt>
      <trkpt lat="48.21354" lon="-3.12822">
        <ele>129</ele>
        <time>2010-01-01T00:00:00Z</time>
      </trkpt>
      <trkpt lat="48.21346" lon="-3.1283">
        <ele>128.6</ele>
        <time>2010-01-01T00:00:00Z</time>
      </trkpt>
      <trkpt lat="48.21334" lon="-3.12841">
        <ele>128</ele>
        <time>2010-01-01T00:00:00Z</time>
      </trkpt>
      <trkpt lat="48.21323" lon="-3.12853">
        <ele>128</ele>
        <time>2010-01-01T00:00:00Z</time>
      </trkpt>
      <trkpt lat="48.21319" lon="-3.12859">
        <ele>128</ele>
        <time>2010-01-01T00:00:00Z</time>
      </trkpt>
      <trkpt lat="48.21316" lon="-3.1286">
        <ele>128</ele>
        <time>2010-01-01T00:00:00Z</time>
      </trkpt>
      <trkpt lat="48.21313" lon="-3.12856">
        <ele>128.1</ele>
        <time>2010-01-01T00:00:00Z</time>
      </trkpt>
      <trkpt lat="48.21307" lon="-3.12847">
        <ele>128.3</ele>
        <time>2010-01-01T00:00:00Z</time>
      </trkpt>
      <trkpt lat="48.21307" lon="-3.12847">
        <ele>128.3</ele>
        <time>2010-01-01T00:00:00Z</time>
      </trkpt>
      <trkpt lat="48.21306" lon="-3.12845">
        <ele>128.3</ele>
        <time>2010-01-01T00:00:00Z</time>
      </trkpt>
      <trkpt lat="48.21296" lon="-3.12856">
        <ele>128.3</ele>
        <time>2010-01-01T00:00:00Z</time>
      </trkpt>
      <trkpt lat="48.21286" lon="-3.12867">
        <ele>128.3</ele>
        <time>2010-01-01T00:00:00Z</time>
      </trkpt>
      <trkpt lat="48.21263" lon="-3.12901">
        <ele>127.2</ele>
        <time>2010-01-01T00:00:00Z</time>
      </trkpt>
      <trkpt lat="48.21262" lon="-3.12903">
        <ele>127.1</ele>
        <time>2010-01-01T00:00:00Z</time>
      </trkpt>
      <trkpt lat="48.21239" lon="-3.12944">
        <ele>126.7</ele>
        <time>2010-01-01T00:00:00Z</time>
      </trkpt>
      <trkpt lat="48.21216" lon="-3.12984">
        <ele>127.3</ele>
        <time>2010-01-01T00:00:00Z</time>
      </trkpt>
      <trkpt lat="48.21216" lon="-3.12984">
        <ele>127.3</ele>
        <time>2010-01-01T00:00:00Z</time>
      </trkpt>
      <trkpt lat="48.21209" lon="-3.12996">
        <ele>127.8</ele>
        <time>2010-01-01T00:00:00Z</time>
      </trkpt>
      <trkpt lat="48.21207" lon="-3.13">
        <ele>128.6</ele>
        <time>2010-01-01T00:00:00Z</time>
      </trkpt>
      <trkpt lat="48.212" lon="-3.1301">
        <ele>133.5</ele>
        <time>2010-01-01T00:00:00Z</time>
      </trkpt>
      <trkpt lat="48.21199" lon="-3.1301">
        <ele>133.5</ele>
        <time>2010-01-01T00:00:00Z</time>
      </trkpt>
      <trkpt lat="48.21198" lon="-3.1301">
        <ele>133.6</ele>
        <time>2010-01-01T00:00:00Z</time>
      </trkpt>
      <trkpt lat="48.21198" lon="-3.1301">
        <ele>133.6</ele>
        <time>2010-01-01T00:00:00Z</time>
      </trkpt>
      <trkpt lat="48.21193" lon="-3.13013">
        <ele>133.9</ele>
        <time>2010-01-01T00:00:00Z</time>
      </trkpt>
      <trkpt lat="48.21179" lon="-3.13012">
        <ele>134.1</ele>
        <time>2010-01-01T00:00:00Z</time>
      </trkpt>
      <trkpt lat="48.21167" lon="-3.13008">
        <ele>133.7</ele>
        <time>2010-01-01T00:00:00Z</time>
      </trkpt>
      <trkpt lat="48.21158" lon="-3.13004">
        <ele>138.6</ele>
        <time>2010-01-01T00:00:00Z</time>
      </trkpt>
      <trkpt lat="48.21157" lon="-3.13004">
        <ele>139</ele>
        <time>2010-01-01T00:00:00Z</time>
      </trkpt>
      <trkpt lat="48.21124" lon="-3.12977">
        <ele>139.1</ele>
        <time>2010-01-01T00:00:00Z</time>
      </trkpt>
      <trkpt lat="48.21115" lon="-3.12966">
        <ele>139.3</ele>
        <time>2010-01-01T00:00:00Z</time>
      </trkpt>
      <trkpt lat="48.21108" lon="-3.12958">
        <ele>139.2</ele>
        <time>2010-01-01T00:00:00Z</time>
      </trkpt>
      <trkpt lat="48.21092" lon="-3.12925">
        <ele>137.5</ele>
        <time>2010-01-01T00:00:00Z</time>
      </trkpt>
      <trkpt lat="48.2107" lon="-3.12878">
        <ele>143.4</ele>
        <time>2010-01-01T00:00:00Z</time>
      </trkpt>
      <trkpt lat="48.21052" lon="-3.12838">
        <ele>143.4</ele>
        <time>2010-01-01T00:00:00Z</time>
      </trkpt>
      <trkpt lat="48.21036" lon="-3.12784">
        <ele>142.1</ele>
        <time>2010-01-01T00:00:00Z</time>
      </trkpt>
      <trkpt lat="48.21024" lon="-3.12726">
        <ele>140.2</ele>
        <time>2010-01-01T00:00:00Z</time>
      </trkpt>
      <trkpt lat="48.21015" lon="-3.1269">
        <ele>139.2</ele>
        <time>2010-01-01T00:00:00Z</time>
      </trkpt>
      <trkpt lat="48.21015" lon="-3.1266">
        <ele>137.9</ele>
        <time>2010-01-01T00:00:00Z</time>
      </trkpt>
      <trkpt lat="48.21007" lon="-3.12636">
        <ele>136.4</ele>
        <time>2010-01-01T00:00:00Z</time>
      </trkpt>
      <trkpt lat="48.21004" lon="-3.12597">
        <ele>136.4</ele>
        <time>2010-01-01T00:00:00Z</time>
      </trkpt>
      <trkpt lat="48.2101" lon="-3.1251">
        <ele>135.3</ele>
        <time>2010-01-01T00:00:00Z</time>
      </trkpt>
      <trkpt lat="48.2102" lon="-3.12358">
        <ele>137.1</ele>
        <time>2010-01-01T00:00:00Z</time>
      </trkpt>
      <trkpt lat="48.21031" lon="-3.12228">
        <ele>138.6</ele>
        <time>2010-01-01T00:00:00Z</time>
      </trkpt>
      <trkpt lat="48.21034" lon="-3.12164">
        <ele>141</ele>
        <time>2010-01-01T00:00:00Z</time>
      </trkpt>
      <trkpt lat="48.21034" lon="-3.12127">
        <ele>140.7</ele>
        <time>2010-01-01T00:00:00Z</time>
      </trkpt>
      <trkpt lat="48.21032" lon="-3.12082">
        <ele>140.6</ele>
        <time>2010-01-01T00:00:00Z</time>
      </trkpt>
      <trkpt lat="48.21025" lon="-3.12028">
        <ele>140</ele>
        <time>2010-01-01T00:00:00Z</time>
      </trkpt>
      <trkpt lat="48.21012" lon="-3.11966">
        <ele>137.8</ele>
        <time>2010-01-01T00:00:00Z</time>
      </trkpt>
      <trkpt lat="48.21002" lon="-3.11896">
        <ele>134</ele>
        <time>2010-01-01T00:00:00Z</time>
      </trkpt>
      <trkpt lat="48.20991" lon="-3.11848">
        <ele>135.3</ele>
        <time>2010-01-01T00:00:00Z</time>
      </trkpt>
      <trkpt lat="48.20981" lon="-3.11814">
        <ele>134.4</ele>
        <time>2010-01-01T00:00:00Z</time>
      </trkpt>
      <trkpt lat="48.20958" lon="-3.11756">
        <ele>135.5</ele>
        <time>2010-01-01T00:00:00Z</time>
      </trkpt>
      <trkpt lat="48.20945" lon="-3.11729">
        <ele>132.9</ele>
        <time>2010-01-01T00:00:00Z</time>
      </trkpt>
      <trkpt lat="48.20932" lon="-3.11715">
        <ele>132.7</ele>
        <time>2010-01-01T00:00:00Z</time>
      </trkpt>
      <trkpt lat="48.209" lon="-3.11699">
        <ele>138.1</ele>
        <time>2010-01-01T00:00:00Z</time>
      </trkpt>
      <trkpt lat="48.20884" lon="-3.11688">
        <ele>138.5</ele>
        <time>2010-01-01T00:00:00Z</time>
      </trkpt>
      <trkpt lat="48.20873" lon="-3.11681">
        <ele>139.1</ele>
        <time>2010-01-01T00:00:00Z</time>
      </trkpt>
      <trkpt lat="48.20847" lon="-3.11674">
        <ele>139.9</ele>
        <time>2010-01-01T00:00:00Z</time>
      </trkpt>
      <trkpt lat="48.20815" lon="-3.11663">
        <ele>140.2</ele>
        <time>2010-01-01T00:00:00Z</time>
      </trkpt>
      <trkpt lat="48.20786" lon="-3.11647">
        <ele>141.7</ele>
        <time>2010-01-01T00:00:00Z</time>
      </trkpt>
      <trkpt lat="48.20755" lon="-3.11623">
        <ele>140.8</ele>
        <time>2010-01-01T00:00:00Z</time>
      </trkpt>
      <trkpt lat="48.20731" lon="-3.11603">
        <ele>139</ele>
        <time>2010-01-01T00:00:00Z</time>
      </trkpt>
      <trkpt lat="48.20713" lon="-3.11592">
        <ele>138.5</ele>
        <time>2010-01-01T00:00:00Z</time>
      </trkpt>
      <trkpt lat="48.20698" lon="-3.1159">
        <ele>138</ele>
        <time>2010-01-01T00:00:00Z</time>
      </trkpt>
      <trkpt lat="48.20681" lon="-3.1159">
        <ele>136.5</ele>
        <time>2010-01-01T00:00:00Z</time>
      </trkpt>
      <trkpt lat="48.20676" lon="-3.1159">
        <ele>135.8</ele>
        <time>2010-01-01T00:00:00Z</time>
      </trkpt>
      <trkpt lat="48.20661" lon="-3.11588">
        <ele>134.7</ele>
        <time>2010-01-01T00:00:00Z</time>
      </trkpt>
      <trkpt lat="48.2066" lon="-3.11588">
        <ele>134.9</ele>
        <time>2010-01-01T00:00:00Z</time>
      </trkpt>
      <trkpt lat="48.20658" lon="-3.11588">
        <ele>135.2</ele>
        <time>2010-01-01T00:00:00Z</time>
      </trkpt>
      <trkpt lat="48.20632" lon="-3.11588">
        <ele>137.7</ele>
        <time>2010-01-01T00:00:00Z</time>
      </trkpt>
      <trkpt lat="48.20621" lon="-3.11589">
        <ele>138.2</ele>
        <time>2010-01-01T00:00:00Z</time>
      </trkpt>
      <trkpt lat="48.20607" lon="-3.11591">
        <ele>138.5</ele>
        <time>2010-01-01T00:00:00Z</time>
      </trkpt>
      <trkpt lat="48.20588" lon="-3.11596">
        <ele>138.5</ele>
        <time>2010-01-01T00:00:00Z</time>
      </trkpt>
      <trkpt lat="48.20553" lon="-3.11606">
        <ele>143.6</ele>
        <time>2010-01-01T00:00:00Z</time>
      </trkpt>
      <trkpt lat="48.20539" lon="-3.11609">
        <ele>144.6</ele>
        <time>2010-01-01T00:00:00Z</time>
      </trkpt>
      <trkpt lat="48.20524" lon="-3.1161">
        <ele>145.5</ele>
        <time>2010-01-01T00:00:00Z</time>
      </trkpt>
      <trkpt lat="48.2051" lon="-3.11609">
        <ele>146.2</ele>
        <time>2010-01-01T00:00:00Z</time>
      </trkpt>
      <trkpt lat="48.20483" lon="-3.11601">
        <ele>150.8</ele>
        <time>2010-01-01T00:00:00Z</time>
      </trkpt>
      <trkpt lat="48.20437" lon="-3.1158">
        <ele>155</ele>
        <time>2010-01-01T00:00:00Z</time>
      </trkpt>
      <trkpt lat="48.20397" lon="-3.11565">
        <ele>159.9</ele>
        <time>2010-01-01T00:00:00Z</time>
      </trkpt>
      <trkpt lat="48.20389" lon="-3.11564">
        <ele>160.5</ele>
        <time>2010-01-01T00:00:00Z</time>
      </trkpt>
      <trkpt lat="48.20373" lon="-3.11561">
        <ele>161.4</ele>
        <time>2010-01-01T00:00:00Z</time>
      </trkpt>
      <trkpt lat="48.2036" lon="-3.1156">
        <ele>161.6</ele>
        <time>2010-01-01T00:00:00Z</time>
      </trkpt>
      <trkpt lat="48.20345" lon="-3.11562">
        <ele>161.1</ele>
        <time>2010-01-01T00:00:00Z</time>
      </trkpt>
      <trkpt lat="48.20328" lon="-3.11567">
        <ele>162.9</ele>
        <time>2010-01-01T00:00:00Z</time>
      </trkpt>
      <trkpt lat="48.20312" lon="-3.11577">
        <ele>163.8</ele>
        <time>2010-01-01T00:00:00Z</time>
      </trkpt>
      <trkpt lat="48.20296" lon="-3.11587">
        <ele>160.2</ele>
        <time>2010-01-01T00:00:00Z</time>
      </trkpt>
      <trkpt lat="48.20281" lon="-3.11604">
        <ele>161</ele>
        <time>2010-01-01T00:00:00Z</time>
      </trkpt>
      <trkpt lat="48.20272" lon="-3.11617">
        <ele>160.8</ele>
        <time>2010-01-01T00:00:00Z</time>
      </trkpt>
      <trkpt lat="48.20261" lon="-3.11636">
        <ele>160</ele>
        <time>2010-01-01T00:00:00Z</time>
      </trkpt>
      <trkpt lat="48.20239" lon="-3.11675">
        <ele>160.5</ele>
        <time>2010-01-01T00:00:00Z</time>
      </trkpt>
      <trkpt lat="48.20221" lon="-3.11711">
        <ele>162.6</ele>
        <time>2010-01-01T00:00:00Z</time>
      </trkpt>
      <trkpt lat="48.20199" lon="-3.11748">
        <ele>163.6</ele>
        <time>2010-01-01T00:00:00Z</time>
      </trkpt>
      <trkpt lat="48.20178" lon="-3.11791">
        <ele>162</ele>
        <time>2010-01-01T00:00:00Z</time>
      </trkpt>
      <trkpt lat="48.2016" lon="-3.11814">
        <ele>162.1</ele>
        <time>2010-01-01T00:00:00Z</time>
      </trkpt>
      <trkpt lat="48.20151" lon="-3.11822">
        <ele>161.9</ele>
        <time>2010-01-01T00:00:00Z</time>
      </trkpt>
      <trkpt lat="48.20143" lon="-3.11828">
        <ele>162.2</ele>
        <time>2010-01-01T00:00:00Z</time>
      </trkpt>
      <trkpt lat="48.20125" lon="-3.11834">
        <ele>160</ele>
        <time>2010-01-01T00:00:00Z</time>
      </trkpt>
      <trkpt lat="48.20102" lon="-3.11844">
        <ele>160.5</ele>
        <time>2010-01-01T00:00:00Z</time>
      </trkpt>
      <trkpt lat="48.20081" lon="-3.11853">
        <ele>161.2</ele>
        <time>2010-01-01T00:00:00Z</time>
      </trkpt>
      <trkpt lat="48.20044" lon="-3.11869">
        <ele>161</ele>
        <time>2010-01-01T00:00:00Z</time>
      </trkpt>
      <trkpt lat="48.20011" lon="-3.11876">
        <ele>161.2</ele>
        <time>2010-01-01T00:00:00Z</time>
      </trkpt>
      <trkpt lat="48.20011" lon="-3.11876">
        <ele>161.2</ele>
        <time>2010-01-01T00:00:00Z</time>
      </trkpt>
      <trkpt lat="48.2" lon="-3.11878">
        <ele>161.1</ele>
        <time>2010-01-01T00:00:00Z</time>
      </trkpt>
      <trkpt lat="48.20038" lon="-3.11806">
        <ele>168</ele>
        <time>2010-01-01T00:00:00Z</time>
      </trkpt>
      <trkpt lat="48.20056" lon="-3.11772">
        <ele>169.1</ele>
        <time>2010-01-01T00:00:00Z</time>
      </trkpt>
      <trkpt lat="48.20068" lon="-3.11678">
        <ele>177.4</ele>
        <time>2010-01-01T00:00:00Z</time>
      </trkpt>
      <trkpt lat="48.2008" lon="-3.11629">
        <ele>180.9</ele>
        <time>2010-01-01T00:00:00Z</time>
      </trkpt>
      <trkpt lat="48.20071" lon="-3.11582">
        <ele>184.6</ele>
        <time>2010-01-01T00:00:00Z</time>
      </trkpt>
      <trkpt lat="48.20069" lon="-3.11546">
        <ele>186</ele>
        <time>2010-01-01T00:00:00Z</time>
      </trkpt>
      <trkpt lat="48.20084" lon="-3.11514">
        <ele>186.7</ele>
        <time>2010-01-01T00:00:00Z</time>
      </trkpt>
      <trkpt lat="48.20118" lon="-3.11479">
        <ele>187.6</ele>
        <time>2010-01-01T00:00:00Z</time>
      </trkpt>
      <trkpt lat="48.2015" lon="-3.11472">
        <ele>186.2</ele>
        <time>2010-01-01T00:00:00Z</time>
      </trkpt>
      <trkpt lat="48.20165" lon="-3.11471">
        <ele>185.7</ele>
        <time>2010-01-01T00:00:00Z</time>
      </trkpt>
      <trkpt lat="48.2017" lon="-3.11466">
        <ele>182.3</ele>
        <time>2010-01-01T00:00:00Z</time>
      </trkpt>
      <trkpt lat="48.20176" lon="-3.11464">
        <ele>182.3</ele>
        <time>2010-01-01T00:00:00Z</time>
      </trkpt>
      <trkpt lat="48.20181" lon="-3.11462">
        <ele>182.3</ele>
        <time>2010-01-01T00:00:00Z</time>
      </trkpt>
      <trkpt lat="48.20188" lon="-3.11459">
        <ele>182.2</ele>
        <time>2010-01-01T00:00:00Z</time>
      </trkpt>
      <trkpt lat="48.20192" lon="-3.11456">
        <ele>182.3</ele>
        <time>2010-01-01T00:00:00Z</time>
      </trkpt>
      <trkpt lat="48.20197" lon="-3.11455">
        <ele>182.2</ele>
        <time>2010-01-01T00:00:00Z</time>
      </trkpt>
      <trkpt lat="48.20202" lon="-3.11452">
        <ele>182.1</ele>
        <time>2010-01-01T00:00:00Z</time>
      </trkpt>
      <trkpt lat="48.20206" lon="-3.11448">
        <ele>182.1</ele>
        <time>2010-01-01T00:00:00Z</time>
      </trkpt>
      <trkpt lat="48.20209" lon="-3.11445">
        <ele>182.2</ele>
        <time>2010-01-01T00:00:00Z</time>
      </trkpt>
      <trkpt lat="48.20215" lon="-3.1144">
        <ele>182.2</ele>
        <time>2010-01-01T00:00:00Z</time>
      </trkpt>
      <trkpt lat="48.20218" lon="-3.11438">
        <ele>182.2</ele>
        <time>2010-01-01T00:00:00Z</time>
      </trkpt>
      <trkpt lat="48.20224" lon="-3.11437">
        <ele>182.1</ele>
        <time>2010-01-01T00:00:00Z</time>
      </trkpt>
      <trkpt lat="48.2023" lon="-3.11433">
        <ele>182.2</ele>
        <time>2010-01-01T00:00:00Z</time>
      </trkpt>
      <trkpt lat="48.20237" lon="-3.11432">
        <ele>182.2</ele>
        <time>2010-01-01T00:00:00Z</time>
      </trkpt>
      <trkpt lat="48.20237" lon="-3.11432">
        <ele>182.2</ele>
        <time>2010-01-01T00:00:00Z</time>
      </trkpt>
      <trkpt lat="48.2023" lon="-3.11433">
        <ele>182.2</ele>
        <time>2010-01-01T00:00:00Z</time>
      </trkpt>
      <trkpt lat="48.2024" lon="-3.11386">
        <ele>187.2</ele>
        <time>2010-01-01T00:00:00Z</time>
      </trkpt>
      <trkpt lat="48.20243" lon="-3.11366">
        <ele>188.6</ele>
        <time>2010-01-01T00:00:00Z</time>
      </trkpt>
      <trkpt lat="48.20233" lon="-3.11331">
        <ele>193.4</ele>
        <time>2010-01-01T00:00:00Z</time>
      </trkpt>
      <trkpt lat="48.20238" lon="-3.11304">
        <ele>194.8</ele>
        <time>2010-01-01T00:00:00Z</time>
      </trkpt>
      <trkpt lat="48.20243" lon="-3.11267">
        <ele>196.5</ele>
        <time>2010-01-01T00:00:00Z</time>
      </trkpt>
      <trkpt lat="48.20246" lon="-3.11227">
        <ele>199.9</ele>
        <time>2010-01-01T00:00:00Z</time>
      </trkpt>
      <trkpt lat="48.20252" lon="-3.11141">
        <ele>198.8</ele>
        <time>2010-01-01T00:00:00Z</time>
      </trkpt>
      <trkpt lat="48.20267" lon="-3.11033">
        <ele>203.5</ele>
        <time>2010-01-01T00:00:00Z</time>
      </trkpt>
      <trkpt lat="48.20281" lon="-3.10969">
        <ele>207.7</ele>
        <time>2010-01-01T00:00:00Z</time>
      </trkpt>
      <trkpt lat="48.20334" lon="-3.10787">
        <ele>201.7</ele>
        <time>2010-01-01T00:00:00Z</time>
      </trkpt>
      <trkpt lat="48.20372" lon="-3.10585">
        <ele>193.6</ele>
        <time>2010-01-01T00:00:00Z</time>
      </trkpt>
      <trkpt lat="48.20414" lon="-3.104">
        <ele>188.5</ele>
        <time>2010-01-01T00:00:00Z</time>
      </trkpt>
      <trkpt lat="48.20442" lon="-3.10205">
        <ele>177.2</ele>
        <time>2010-01-01T00:00:00Z</time>
      </trkpt>
      <trkpt lat="48.20458" lon="-3.10099">
        <ele>179.1</ele>
        <time>2010-01-01T00:00:00Z</time>
      </trkpt>
      <trkpt lat="48.20469" lon="-3.09942">
        <ele>180.3</ele>
        <time>2010-01-01T00:00:00Z</time>
      </trkpt>
      <trkpt lat="48.2046" lon="-3.09862">
        <ele>179.9</ele>
        <time>2010-01-01T00:00:00Z</time>
      </trkpt>
      <trkpt lat="48.2046" lon="-3.09862">
        <ele>179.9</ele>
        <time>2010-01-01T00:00:00Z</time>
      </trkpt>
      <trkpt lat="48.20459" lon="-3.09854">
        <ele>179.9</ele>
        <time>2010-01-01T00:00:00Z</time>
      </trkpt>
      <trkpt lat="48.20413" lon="-3.0982">
        <ele>186</ele>
        <time>2010-01-01T00:00:00Z</time>
      </trkpt>
      <trkpt lat="48.20374" lon="-3.09833">
        <ele>185.2</ele>
        <time>2010-01-01T00:00:00Z</time>
      </trkpt>
      <trkpt lat="48.20341" lon="-3.09882">
        <ele>191.4</ele>
        <time>2010-01-01T00:00:00Z</time>
      </trkpt>
      <trkpt lat="48.20315" lon="-3.09951">
        <ele>193.6</ele>
        <time>2010-01-01T00:00:00Z</time>
      </trkpt>
      <trkpt lat="48.20286" lon="-3.1003">
        <ele>196.5</ele>
        <time>2010-01-01T00:00:00Z</time>
      </trkpt>
      <trkpt lat="48.20265" lon="-3.10091">
        <ele>198.9</ele>
        <time>2010-01-01T00:00:00Z</time>
      </trkpt>
      <trkpt lat="48.20252" lon="-3.1016">
        <ele>201.7</ele>
        <time>2010-01-01T00:00:00Z</time>
      </trkpt>
      <trkpt lat="48.20228" lon="-3.10218">
        <ele>203.1</ele>
        <time>2010-01-01T00:00:00Z</time>
      </trkpt>
      <trkpt lat="48.20208" lon="-3.10265">
        <ele>205.7</ele>
        <time>2010-01-01T00:00:00Z</time>
      </trkpt>
      <trkpt lat="48.20176" lon="-3.10345">
        <ele>208</ele>
        <time>2010-01-01T00:00:00Z</time>
      </trkpt>
      <trkpt lat="48.20149" lon="-3.10431">
        <ele>210.2</ele>
        <time>2010-01-01T00:00:00Z</time>
      </trkpt>
      <trkpt lat="48.20125" lon="-3.10505">
        <ele>217.4</ele>
        <time>2010-01-01T00:00:00Z</time>
      </trkpt>
      <trkpt lat="48.20072" lon="-3.10526">
        <ele>213.4</ele>
        <time>2010-01-01T00:00:00Z</time>
      </trkpt>
      <trkpt lat="48.20028" lon="-3.10518">
        <ele>213.3</ele>
        <time>2010-01-01T00:00:00Z</time>
      </trkpt>
      <trkpt lat="48.19984" lon="-3.10484">
        <ele>210.4</ele>
        <time>2010-01-01T00:00:00Z</time>
      </trkpt>
      <trkpt lat="48.1997" lon="-3.10444">
        <ele>209.2</ele>
        <time>2010-01-01T00:00:00Z</time>
      </trkpt>
      <trkpt lat="48.19955" lon="-3.10363">
        <ele>205.3</ele>
        <time>2010-01-01T00:00:00Z</time>
      </trkpt>
      <trkpt lat="48.19954" lon="-3.10291">
        <ele>201.5</ele>
        <time>2010-01-01T00:00:00Z</time>
      </trkpt>
      <trkpt lat="48.19952" lon="-3.10253">
        <ele>201.1</ele>
        <time>2010-01-01T00:00:00Z</time>
      </trkpt>
      <trkpt lat="48.1992" lon="-3.10157">
        <ele>198.7</ele>
        <time>2010-01-01T00:00:00Z</time>
      </trkpt>
      <trkpt lat="48.19911" lon="-3.10114">
        <ele>198.1</ele>
        <time>2010-01-01T00:00:00Z</time>
      </trkpt>
      <trkpt lat="48.19892" lon="-3.10041">
        <ele>195.9</ele>
        <time>2010-01-01T00:00:00Z</time>
      </trkpt>
      <trkpt lat="48.19892" lon="-3.10041">
        <ele>195.9</ele>
        <time>2010-01-01T00:00:00Z</time>
      </trkpt>
      <trkpt lat="48.1989" lon="-3.10034">
        <ele>195.9</ele>
        <time>2010-01-01T00:00:00Z</time>
      </trkpt>
      <trkpt lat="48.1993" lon="-3.09998">
        <ele>190.4</ele>
        <time>2010-01-01T00:00:00Z</time>
      </trkpt>
      <trkpt lat="48.19953" lon="-3.09987">
        <ele>189.5</ele>
        <time>2010-01-01T00:00:00Z</time>
      </trkpt>
      <trkpt lat="48.19991" lon="-3.09987">
        <ele>188.1</ele>
        <time>2010-01-01T00:00:00Z</time>
      </trkpt>
      <trkpt lat="48.20028" lon="-3.09978">
        <ele>184.8</ele>
        <time>2010-01-01T00:00:00Z</time>
      </trkpt>
      <trkpt lat="48.20088" lon="-3.0997">
        <ele>181.6</ele>
        <time>2010-01-01T00:00:00Z</time>
      </trkpt>
      <trkpt lat="48.20114" lon="-3.09949">
        <ele>180.9</ele>
        <time>2010-01-01T00:00:00Z</time>
      </trkpt>
      <trkpt lat="48.20143" lon="-3.09906">
        <ele>177</ele>
        <time>2010-01-01T00:00:00Z</time>
      </trkpt>
      <trkpt lat="48.20157" lon="-3.09861">
        <ele>175</ele>
        <time>2010-01-01T00:00:00Z</time>
      </trkpt>
      <trkpt lat="48.2019" lon="-3.09784">
        <ele>169.9</ele>
        <time>2010-01-01T00:00:00Z</time>
      </trkpt>
      <trkpt lat="48.20194" lon="-3.09741">
        <ele>164.6</ele>
        <time>2010-01-01T00:00:00Z</time>
      </trkpt>
      <trkpt lat="48.20194" lon="-3.09703">
        <ele>163</ele>
        <time>2010-01-01T00:00:00Z</time>
      </trkpt>
      <trkpt lat="48.20194" lon="-3.09703">
        <ele>163</ele>
        <time>2010-01-01T00:00:00Z</time>
      </trkpt>
      <trkpt lat="48.20194" lon="-3.09699">
        <ele>162.9</ele>
        <time>2010-01-01T00:00:00Z</time>
      </trkpt>
      <trkpt lat="48.20181" lon="-3.09655">
        <ele>157.2</ele>
        <time>2010-01-01T00:00:00Z</time>
      </trkpt>
      <trkpt lat="48.20162" lon="-3.09613">
        <ele>160.3</ele>
        <time>2010-01-01T00:00:00Z</time>
      </trkpt>
      <trkpt lat="48.2014" lon="-3.09569">
        <ele>155.6</ele>
        <time>2010-01-01T00:00:00Z</time>
      </trkpt>
      <trkpt lat="48.20121" lon="-3.09522">
        <ele>155.9</ele>
        <time>2010-01-01T00:00:00Z</time>
      </trkpt>
      <trkpt lat="48.20107" lon="-3.09479">
        <ele>152.2</ele>
        <time>2010-01-01T00:00:00Z</time>
      </trkpt>
      <trkpt lat="48.20101" lon="-3.09426">
        <ele>151.3</ele>
        <time>2010-01-01T00:00:00Z</time>
      </trkpt>
      <trkpt lat="48.20101" lon="-3.09367">
        <ele>147.2</ele>
        <time>2010-01-01T00:00:00Z</time>
      </trkpt>
      <trkpt lat="48.20107" lon="-3.093">
        <ele>147.2</ele>
        <time>2010-01-01T00:00:00Z</time>
      </trkpt>
      <trkpt lat="48.20111" lon="-3.09252">
        <ele>148.5</ele>
        <time>2010-01-01T00:00:00Z</time>
      </trkpt>
      <trkpt lat="48.20102" lon="-3.09204">
        <ele>150.1</ele>
        <time>2010-01-01T00:00:00Z</time>
      </trkpt>
      <trkpt lat="48.20086" lon="-3.091">
        <ele>154.8</ele>
        <time>2010-01-01T00:00:00Z</time>
      </trkpt>
      <trkpt lat="48.20077" lon="-3.09021">
        <ele>169.8</ele>
        <time>2010-01-01T00:00:00Z</time>
      </trkpt>
      <trkpt lat="48.2008" lon="-3.08922">
        <ele>168.4</ele>
        <time>2010-01-01T00:00:00Z</time>
      </trkpt>
      <trkpt lat="48.20084" lon="-3.08855">
        <ele>163.5</ele>
        <time>2010-01-01T00:00:00Z</time>
      </trkpt>
      <trkpt lat="48.20094" lon="-3.08732">
        <ele>167.1</ele>
        <time>2010-01-01T00:00:00Z</time>
      </trkpt>
      <trkpt lat="48.20113" lon="-3.08691">
        <ele>166.3</ele>
        <time>2010-01-01T00:00:00Z</time>
      </trkpt>
      <trkpt lat="48.20126" lon="-3.08674">
        <ele>165.8</ele>
        <time>2010-01-01T00:00:00Z</time>
      </trkpt>
      <trkpt lat="48.20128" lon="-3.08672">
        <ele>165.7</ele>
        <time>2010-01-01T00:00:00Z</time>
      </trkpt>
      <trkpt lat="48.20128" lon="-3.08668">
        <ele>165.7</ele>
        <time>2010-01-01T00:00:00Z</time>
      </trkpt>
      <trkpt lat="48.20128" lon="-3.08668">
        <ele>165.7</ele>
        <time>2010-01-01T00:00:00Z</time>
      </trkpt>
      <trkpt lat="48.20129" lon="-3.08643">
        <ele>170.3</ele>
        <time>2010-01-01T00:00:00Z</time>
      </trkpt>
      <trkpt lat="48.2013" lon="-3.08588">
        <ele>172.4</ele>
        <time>2010-01-01T00:00:00Z</time>
      </trkpt>
      <trkpt lat="48.20133" lon="-3.08525">
        <ele>179.2</ele>
        <time>2010-01-01T00:00:00Z</time>
      </trkpt>
      <trkpt lat="48.20146" lon="-3.08486">
        <ele>185.9</ele>
        <time>2010-01-01T00:00:00Z</time>
      </trkpt>
      <trkpt lat="48.2017" lon="-3.0847">
        <ele>182.5</ele>
        <time>2010-01-01T00:00:00Z</time>
      </trkpt>
      <trkpt lat="48.20192" lon="-3.08441">
        <ele>184.9</ele>
        <time>2010-01-01T00:00:00Z</time>
      </trkpt>
      <trkpt lat="48.20212" lon="-3.08401">
        <ele>197.3</ele>
        <time>2010-01-01T00:00:00Z</time>
      </trkpt>
      <trkpt lat="48.2023" lon="-3.0839">
        <ele>197.3</ele>
        <time>2010-01-01T00:00:00Z</time>
      </trkpt>
      <trkpt lat="48.2024" lon="-3.08355">
        <ele>203.1</ele>
        <time>2010-01-01T00:00:00Z</time>
      </trkpt>
      <trkpt lat="48.20243" lon="-3.08341">
        <ele>205.9</ele>
        <time>2010-01-01T00:00:00Z</time>
      </trkpt>
      <trkpt lat="48.20311" lon="-3.08293">
        <ele>210.3</ele>
        <time>2010-01-01T00:00:00Z</time>
      </trkpt>
      <trkpt lat="48.20326" lon="-3.08285">
        <ele>211.2</ele>
        <time>2010-01-01T00:00:00Z</time>
      </trkpt>
      <trkpt lat="48.20344" lon="-3.08275">
        <ele>203.9</ele>
        <time>2010-01-01T00:00:00Z</time>
      </trkpt>
      <trkpt lat="48.20358" lon="-3.08266">
        <ele>203.6</ele>
        <time>2010-01-01T00:00:00Z</time>
      </trkpt>
      <trkpt lat="48.20375" lon="-3.08262">
        <ele>201.2</ele>
        <time>2010-01-01T00:00:00Z</time>
      </trkpt>
      <trkpt lat="48.20428" lon="-3.08259">
        <ele>194.7</ele>
        <time>2010-01-01T00:00:00Z</time>
      </trkpt>
      <trkpt lat="48.20461" lon="-3.08259">
        <ele>187.8</ele>
        <time>2010-01-01T00:00:00Z</time>
      </trkpt>
      <trkpt lat="48.20495" lon="-3.08258">
        <ele>189.7</ele>
        <time>2010-01-01T00:00:00Z</time>
      </trkpt>
      <trkpt lat="48.2052" lon="-3.08259">
        <ele>183.8</ele>
        <time>2010-01-01T00:00:00Z</time>
      </trkpt>
      <trkpt lat="48.20533" lon="-3.0826">
        <ele>181.7</ele>
        <time>2010-01-01T00:00:00Z</time>
      </trkpt>
      <trkpt lat="48.20544" lon="-3.08263">
        <ele>180.5</ele>
        <time>2010-01-01T00:00:00Z</time>
      </trkpt>
      <trkpt lat="48.2055" lon="-3.08268">
        <ele>179.9</ele>
        <time>2010-01-01T00:00:00Z</time>
      </trkpt>
      <trkpt lat="48.20556" lon="-3.08272">
        <ele>179.5</ele>
        <time>2010-01-01T00:00:00Z</time>
      </trkpt>
      <trkpt lat="48.20564" lon="-3.08277">
        <ele>179</ele>
        <time>2010-01-01T00:00:00Z</time>
      </trkpt>
      <trkpt lat="48.20574" lon="-3.0828">
        <ele>178.7</ele>
        <time>2010-01-01T00:00:00Z</time>
      </trkpt>
      <trkpt lat="48.20586" lon="-3.08282">
        <ele>175.5</ele>
        <time>2010-01-01T00:00:00Z</time>
      </trkpt>
      <trkpt lat="48.20599" lon="-3.08284">
        <ele>174.7</ele>
        <time>2010-01-01T00:00:00Z</time>
      </trkpt>
      <trkpt lat="48.20616" lon="-3.08286">
        <ele>173.6</ele>
        <time>2010-01-01T00:00:00Z</time>
      </trkpt>
      <trkpt lat="48.20629" lon="-3.08285">
        <ele>173</ele>
        <time>2010-01-01T00:00:00Z</time>
      </trkpt>
      <trkpt lat="48.20642" lon="-3.08277">
        <ele>172.9</ele>
        <time>2010-01-01T00:00:00Z</time>
      </trkpt>
      <trkpt lat="48.20678" lon="-3.08256">
        <ele>169.5</ele>
        <time>2010-01-01T00:00:00Z</time>
      </trkpt>
      <trkpt lat="48.20726" lon="-3.08235">
        <ele>167</ele>
        <time>2010-01-01T00:00:00Z</time>
      </trkpt>
      <trkpt lat="48.20732" lon="-3.08227">
        <ele>166.9</ele>
        <time>2010-01-01T00:00:00Z</time>
      </trkpt>
      <trkpt lat="48.2074" lon="-3.08213">
        <ele>167</ele>
        <time>2010-01-01T00:00:00Z</time>
      </trkpt>
      <trkpt lat="48.20744" lon="-3.08194">
        <ele>166.8</ele>
        <time>2010-01-01T00:00:00Z</time>
      </trkpt>
      <trkpt lat="48.20745" lon="-3.0818">
        <ele>166</ele>
        <time>2010-01-01T00:00:00Z</time>
      </trkpt>
      <trkpt lat="48.20745" lon="-3.08175">
        <ele>165.5</ele>
        <time>2010-01-01T00:00:00Z</time>
      </trkpt>
      <trkpt lat="48.20745" lon="-3.08175">
        <ele>165.5</ele>
        <time>2010-01-01T00:00:00Z</time>
      </trkpt>
      <trkpt lat="48.20744" lon="-3.08163">
        <ele>164.9</ele>
        <time>2010-01-01T00:00:00Z</time>
      </trkpt>
      <trkpt lat="48.20741" lon="-3.08142">
        <ele>166</ele>
        <time>2010-01-01T00:00:00Z</time>
      </trkpt>
      <trkpt lat="48.20732" lon="-3.08086">
        <ele>164.4</ele>
        <time>2010-01-01T00:00:00Z</time>
      </trkpt>
      <trkpt lat="48.20726" lon="-3.08058">
        <ele>162.3</ele>
        <time>2010-01-01T00:00:00Z</time>
      </trkpt>
      <trkpt lat="48.20719" lon="-3.08026">
        <ele>161.5</ele>
        <time>2010-01-01T00:00:00Z</time>
      </trkpt>
      <trkpt lat="48.20715" lon="-3.08009">
        <ele>161.2</ele>
        <time>2010-01-01T00:00:00Z</time>
      </trkpt>
      <trkpt lat="48.207" lon="-3.07967">
        <ele>158.3</ele>
        <time>2010-01-01T00:00:00Z</time>
      </trkpt>
      <trkpt lat="48.2068" lon="-3.07912">
        <ele>156.4</ele>
        <time>2010-01-01T00:00:00Z</time>
      </trkpt>
      <trkpt lat="48.20659" lon="-3.07864">
        <ele>162.4</ele>
        <time>2010-01-01T00:00:00Z</time>
      </trkpt>
      <trkpt lat="48.20642" lon="-3.07817">
        <ele>158.7</ele>
        <time>2010-01-01T00:00:00Z</time>
      </trkpt>
      <trkpt lat="48.20637" lon="-3.07798">
        <ele>158.7</ele>
        <time>2010-01-01T00:00:00Z</time>
      </trkpt>
      <trkpt lat="48.2063" lon="-3.0778">
        <ele>158.6</ele>
        <time>2010-01-01T00:00:00Z</time>
      </trkpt>
      <trkpt lat="48.20621" lon="-3.07765">
        <ele>159.3</ele>
        <time>2010-01-01T00:00:00Z</time>
      </trkpt>
      <trkpt lat="48.20611" lon="-3.07754">
        <ele>160.7</ele>
        <time>2010-01-01T00:00:00Z</time>
      </trkpt>
      <trkpt lat="48.20604" lon="-3.07746">
        <ele>157.3</ele>
        <time>2010-01-01T00:00:00Z</time>
      </trkpt>
      <trkpt lat="48.20597" lon="-3.07739">
        <ele>158.3</ele>
        <time>2010-01-01T00:00:00Z</time>
      </trkpt>
      <trkpt lat="48.2059" lon="-3.07728">
        <ele>157.2</ele>
        <time>2010-01-01T00:00:00Z</time>
      </trkpt>
      <trkpt lat="48.20588" lon="-3.07717">
        <ele>155.4</ele>
        <time>2010-01-01T00:00:00Z</time>
      </trkpt>
      <trkpt lat="48.20585" lon="-3.07704">
        <ele>154.2</ele>
        <time>2010-01-01T00:00:00Z</time>
      </trkpt>
      <trkpt lat="48.20582" lon="-3.07691">
        <ele>166.1</ele>
        <time>2010-01-01T00:00:00Z</time>
      </trkpt>
      <trkpt lat="48.20577" lon="-3.07677">
        <ele>162.6</ele>
        <time>2010-01-01T00:00:00Z</time>
      </trkpt>
      <trkpt lat="48.20571" lon="-3.07654">
        <ele>159.8</ele>
        <time>2010-01-01T00:00:00Z</time>
      </trkpt>
      <trkpt lat="48.20558" lon="-3.07621">
        <ele>160.8</ele>
        <time>2010-01-01T00:00:00Z</time>
      </trkpt>
      <trkpt lat="48.20548" lon="-3.07596">
        <ele>160.6</ele>
        <time>2010-01-01T00:00:00Z</time>
      </trkpt>
      <trkpt lat="48.20542" lon="-3.07576">
        <ele>155.5</ele>
        <time>2010-01-01T00:00:00Z</time>
      </trkpt>
      <trkpt lat="48.20534" lon="-3.0756">
        <ele>156.6</ele>
        <time>2010-01-01T00:00:00Z</time>
      </trkpt>
      <trkpt lat="48.20521" lon="-3.07534">
        <ele>157.2</ele>
        <time>2010-01-01T00:00:00Z</time>
      </trkpt>
      <trkpt lat="48.20506" lon="-3.0751">
        <ele>161</ele>
        <time>2010-01-01T00:00:00Z</time>
      </trkpt>
      <trkpt lat="48.20467" lon="-3.07441">
        <ele>166.6</ele>
        <time>2010-01-01T00:00:00Z</time>
      </trkpt>
      <trkpt lat="48.20457" lon="-3.07414">
        <ele>159.9</ele>
        <time>2010-01-01T00:00:00Z</time>
      </trkpt>
      <trkpt lat="48.20446" lon="-3.07384">
        <ele>160.5</ele>
        <time>2010-01-01T00:00:00Z</time>
      </trkpt>
      <trkpt lat="48.20432" lon="-3.07348">
        <ele>161.9</ele>
        <time>2010-01-01T00:00:00Z</time>
      </trkpt>
      <trkpt lat="48.20407" lon="-3.07296">
        <ele>174.1</ele>
        <time>2010-01-01T00:00:00Z</time>
      </trkpt>
      <trkpt lat="48.20377" lon="-3.07243">
        <ele>171.1</ele>
        <time>2010-01-01T00:00:00Z</time>
      </trkpt>
      <trkpt lat="48.20363" lon="-3.07207">
        <ele>171.7</ele>
        <time>2010-01-01T00:00:00Z</time>
      </trkpt>
      <trkpt lat="48.20356" lon="-3.07188">
        <ele>172</ele>
        <time>2010-01-01T00:00:00Z</time>
      </trkpt>
      <trkpt lat="48.20348" lon="-3.07174">
        <ele>173.5</ele>
        <time>2010-01-01T00:00:00Z</time>
      </trkpt>
      <trkpt lat="48.20339" lon="-3.07158">
        <ele>171.2</ele>
        <time>2010-01-01T00:00:00Z</time>
      </trkpt>
      <trkpt lat="48.20326" lon="-3.07145">
        <ele>174.4</ele>
        <time>2010-01-01T00:00:00Z</time>
      </trkpt>
      <trkpt lat="48.20314" lon="-3.07133">
        <ele>173.3</ele>
        <time>2010-01-01T00:00:00Z</time>
      </trkpt>
      <trkpt lat="48.20296" lon="-3.07119">
        <ele>172.4</ele>
        <time>2010-01-01T00:00:00Z</time>
      </trkpt>
      <trkpt lat="48.20282" lon="-3.0711">
        <ele>171.8</ele>
        <time>2010-01-01T00:00:00Z</time>
      </trkpt>
      <trkpt lat="48.20268" lon="-3.07106">
        <ele>171.2</ele>
        <time>2010-01-01T00:00:00Z</time>
      </trkpt>
      <trkpt lat="48.20253" lon="-3.07107">
        <ele>171</ele>
        <time>2010-01-01T00:00:00Z</time>
      </trkpt>
      <trkpt lat="48.20228" lon="-3.07119">
        <ele>171.1</ele>
        <time>2010-01-01T00:00:00Z</time>
      </trkpt>
      <trkpt lat="48.20188" lon="-3.07142">
        <ele>172.7</ele>
        <time>2010-01-01T00:00:00Z</time>
      </trkpt>
      <trkpt lat="48.20168" lon="-3.07155">
        <ele>175.7</ele>
        <time>2010-01-01T00:00:00Z</time>
      </trkpt>
      <trkpt lat="48.20145" lon="-3.07165">
        <ele>171.3</ele>
        <time>2010-01-01T00:00:00Z</time>
      </trkpt>
      <trkpt lat="48.20136" lon="-3.07169">
        <ele>183.9</ele>
        <time>2010-01-01T00:00:00Z</time>
      </trkpt>
      <trkpt lat="48.20115" lon="-3.07172">
        <ele>183</ele>
        <time>2010-01-01T00:00:00Z</time>
      </trkpt>
      <trkpt lat="48.20098" lon="-3.07174">
        <ele>180.1</ele>
        <time>2010-01-01T00:00:00Z</time>
      </trkpt>
      <trkpt lat="48.20081" lon="-3.07174">
        <ele>176.4</ele>
        <time>2010-01-01T00:00:00Z</time>
      </trkpt>
      <trkpt lat="48.20067" lon="-3.07169">
        <ele>178.8</ele>
        <time>2010-01-01T00:00:00Z</time>
      </trkpt>
      <trkpt lat="48.20055" lon="-3.07162">
        <ele>168</ele>
        <time>2010-01-01T00:00:00Z</time>
      </trkpt>
      <trkpt lat="48.20044" lon="-3.07152">
        <ele>167.2</ele>
        <time>2010-01-01T00:00:00Z</time>
      </trkpt>
      <trkpt lat="48.2003" lon="-3.07138">
        <ele>166.2</ele>
        <time>2010-01-01T00:00:00Z</time>
      </trkpt>
      <trkpt lat="48.20006" lon="-3.07117">
        <ele>163.5</ele>
        <time>2010-01-01T00:00:00Z</time>
      </trkpt>
      <trkpt lat="48.1999" lon="-3.07094">
        <ele>162</ele>
        <time>2010-01-01T00:00:00Z</time>
      </trkpt>
      <trkpt lat="48.1998" lon="-3.07074">
        <ele>156.1</ele>
        <time>2010-01-01T00:00:00Z</time>
      </trkpt>
      <trkpt lat="48.19967" lon="-3.07056">
        <ele>156</ele>
        <time>2010-01-01T00:00:00Z</time>
      </trkpt>
      <trkpt lat="48.19958" lon="-3.07043">
        <ele>155.8</ele>
        <time>2010-01-01T00:00:00Z</time>
      </trkpt>
      <trkpt lat="48.1994" lon="-3.07008">
        <ele>155.1</ele>
        <time>2010-01-01T00:00:00Z</time>
      </trkpt>
      <trkpt lat="48.19942" lon="-3.07007">
        <ele>155</ele>
        <time>2010-01-01T00:00:00Z</time>
      </trkpt>
      <trkpt lat="48.19942" lon="-3.07007">
        <ele>155</ele>
        <time>2010-01-01T00:00:00Z</time>
      </trkpt>
      <trkpt lat="48.19951" lon="-3.07003">
        <ele>154.6</ele>
        <time>2010-01-01T00:00:00Z</time>
      </trkpt>
      <trkpt lat="48.20008" lon="-3.06976">
        <ele>147.5</ele>
        <time>2010-01-01T00:00:00Z</time>
      </trkpt>
      <trkpt lat="48.20061" lon="-3.06956">
        <ele>146.6</ele>
        <time>2010-01-01T00:00:00Z</time>
      </trkpt>
      <trkpt lat="48.20052" lon="-3.06937">
        <ele>147.3</ele>
        <time>2010-01-01T00:00:00Z</time>
      </trkpt>
      <trkpt lat="48.20034" lon="-3.06919">
        <ele>147.9</ele>
        <time>2010-01-01T00:00:00Z</time>
      </trkpt>
      <trkpt lat="48.20034" lon="-3.06918">
        <ele>147.9</ele>
        <time>2010-01-01T00:00:00Z</time>
      </trkpt>
      <trkpt lat="48.2001" lon="-3.06899">
        <ele>152.6</ele>
        <time>2010-01-01T00:00:00Z</time>
      </trkpt>
      <trkpt lat="48.19992" lon="-3.06878">
        <ele>154.6</ele>
        <time>2010-01-01T00:00:00Z</time>
      </trkpt>
      <trkpt lat="48.19982" lon="-3.06867">
        <ele>155.4</ele>
        <time>2010-01-01T00:00:00Z</time>
      </trkpt>
      <trkpt lat="48.19991" lon="-3.06862">
        <ele>155.8</ele>
        <time>2010-01-01T00:00:00Z</time>
      </trkpt>
      <trkpt lat="48.19996" lon="-3.06861">
        <ele>155.9</ele>
        <time>2010-01-01T00:00:00Z</time>
      </trkpt>
      <trkpt lat="48.2001" lon="-3.0686">
        <ele>155.9</ele>
        <time>2010-01-01T00:00:00Z</time>
      </trkpt>
      <trkpt lat="48.20019" lon="-3.06863">
        <ele>155.6</ele>
        <time>2010-01-01T00:00:00Z</time>
      </trkpt>
      <trkpt lat="48.20028" lon="-3.06865">
        <ele>155.4</ele>
        <time>2010-01-01T00:00:00Z</time>
      </trkpt>
      <trkpt lat="48.20036" lon="-3.06866">
        <ele>155.3</ele>
        <time>2010-01-01T00:00:00Z</time>
      </trkpt>
      <trkpt lat="48.20042" lon="-3.06865">
        <ele>155.4</ele>
        <time>2010-01-01T00:00:00Z</time>
      </trkpt>
      <trkpt lat="48.20049" lon="-3.06861">
        <ele>155.8</ele>
        <time>2010-01-01T00:00:00Z</time>
      </trkpt>
      <trkpt lat="48.20055" lon="-3.06856">
        <ele>156.3</ele>
        <time>2010-01-01T00:00:00Z</time>
      </trkpt>
      <trkpt lat="48.20079" lon="-3.06833">
        <ele>162.8</ele>
        <time>2010-01-01T00:00:00Z</time>
      </trkpt>
      <trkpt lat="48.20095" lon="-3.06812">
        <ele>162.9</ele>
        <time>2010-01-01T00:00:00Z</time>
      </trkpt>
      <trkpt lat="48.20103" lon="-3.06799">
        <ele>163.6</ele>
        <time>2010-01-01T00:00:00Z</time>
      </trkpt>
      <trkpt lat="48.2011" lon="-3.0679">
        <ele>164</ele>
        <time>2010-01-01T00:00:00Z</time>
      </trkpt>
      <trkpt lat="48.20123" lon="-3.06774">
        <ele>164.5</ele>
        <time>2010-01-01T00:00:00Z</time>
      </trkpt>
      <trkpt lat="48.20135" lon="-3.0676">
        <ele>164.7</ele>
        <time>2010-01-01T00:00:00Z</time>
      </trkpt>
      <trkpt lat="48.20146" lon="-3.06748">
        <ele>171.9</ele>
        <time>2010-01-01T00:00:00Z</time>
      </trkpt>
      <trkpt lat="48.20166" lon="-3.0673">
        <ele>172.1</ele>
        <time>2010-01-01T00:00:00Z</time>
      </trkpt>
      <trkpt lat="48.20188" lon="-3.06709">
        <ele>167.2</ele>
        <time>2010-01-01T00:00:00Z</time>
      </trkpt>
      <trkpt lat="48.20211" lon="-3.06684">
        <ele>167.1</ele>
        <time>2010-01-01T00:00:00Z</time>
      </trkpt>
      <trkpt lat="48.20226" lon="-3.06669">
        <ele>166.2</ele>
        <time>2010-01-01T00:00:00Z</time>
      </trkpt>
      <trkpt lat="48.20226" lon="-3.06669">
        <ele>166.2</ele>
        <time>2010-01-01T00:00:00Z</time>
      </trkpt>
      <trkpt lat="48.20228" lon="-3.06667">
        <ele>166.1</ele>
        <time>2010-01-01T00:00:00Z</time>
      </trkpt>
      <trkpt lat="48.20243" lon="-3.06649">
        <ele>173.3</ele>
        <time>2010-01-01T00:00:00Z</time>
      </trkpt>
      <trkpt lat="48.20272" lon="-3.06612">
        <ele>166.9</ele>
        <time>2010-01-01T00:00:00Z</time>
      </trkpt>
      <trkpt lat="48.20288" lon="-3.06588">
        <ele>166.2</ele>
        <time>2010-01-01T00:00:00Z</time>
      </trkpt>
      <trkpt lat="48.20304" lon="-3.06562">
        <ele>171</ele>
        <time>2010-01-01T00:00:00Z</time>
      </trkpt>
      <trkpt lat="48.20311" lon="-3.06547">
        <ele>171.1</ele>
        <time>2010-01-01T00:00:00Z</time>
      </trkpt>
      <trkpt lat="48.20315" lon="-3.06536">
        <ele>171.3</ele>
        <time>2010-01-01T00:00:00Z</time>
      </trkpt>
      <trkpt lat="48.20318" lon="-3.06521">
        <ele>171</ele>
        <time>2010-01-01T00:00:00Z</time>
      </trkpt>
      <trkpt lat="48.20321" lon="-3.06494">
        <ele>172.1</ele>
        <time>2010-01-01T00:00:00Z</time>
      </trkpt>
      <trkpt lat="48.20328" lon="-3.06409">
        <ele>174.8</ele>
        <time>2010-01-01T00:00:00Z</time>
      </trkpt>
      <trkpt lat="48.20329" lon="-3.06374">
        <ele>179</ele>
        <time>2010-01-01T00:00:00Z</time>
      </trkpt>
      <trkpt lat="48.2033" lon="-3.06345">
        <ele>176.1</ele>
        <time>2010-01-01T00:00:00Z</time>
      </trkpt>
      <trkpt lat="48.2033" lon="-3.06323">
        <ele>176.4</ele>
        <time>2010-01-01T00:00:00Z</time>
      </trkpt>
      <trkpt lat="48.20329" lon="-3.06296">
        <ele>180.4</ele>
        <time>2010-01-01T00:00:00Z</time>
      </trkpt>
      <trkpt lat="48.20326" lon="-3.06265">
        <ele>179</ele>
        <time>2010-01-01T00:00:00Z</time>
      </trkpt>
      <trkpt lat="48.20325" lon="-3.06244">
        <ele>177.8</ele>
        <time>2010-01-01T00:00:00Z</time>
      </trkpt>
      <trkpt lat="48.20325" lon="-3.06208">
        <ele>181.3</ele>
        <time>2010-01-01T00:00:00Z</time>
      </trkpt>
      <trkpt lat="48.20323" lon="-3.06185">
        <ele>180</ele>
        <time>2010-01-01T00:00:00Z</time>
      </trkpt>
      <trkpt lat="48.20319" lon="-3.0613">
        <ele>181.8</ele>
        <time>2010-01-01T00:00:00Z</time>
      </trkpt>
      <trkpt lat="48.20313" lon="-3.06081">
        <ele>181.1</ele>
        <time>2010-01-01T00:00:00Z</time>
      </trkpt>
      <trkpt lat="48.20302" lon="-3.05913">
        <ele>181</ele>
        <time>2010-01-01T00:00:00Z</time>
      </trkpt>
      <trkpt lat="48.20297" lon="-3.05854">
        <ele>181.9</ele>
        <time>2010-01-01T00:00:00Z</time>
      </trkpt>
      <trkpt lat="48.2029" lon="-3.05787">
        <ele>182.9</ele>
        <time>2010-01-01T00:00:00Z</time>
      </trkpt>
      <trkpt lat="48.20283" lon="-3.0574">
        <ele>183.8</ele>
        <time>2010-01-01T00:00:00Z</time>
      </trkpt>
      <trkpt lat="48.20268" lon="-3.05615">
        <ele>182.9</ele>
        <time>2010-01-01T00:00:00Z</time>
      </trkpt>
      <trkpt lat="48.20263" lon="-3.05591">
        <ele>183.9</ele>
        <time>2010-01-01T00:00:00Z</time>
      </trkpt>
      <trkpt lat="48.2026" lon="-3.0558">
        <ele>183.8</ele>
        <time>2010-01-01T00:00:00Z</time>
      </trkpt>
      <trkpt lat="48.20251" lon="-3.05558">
        <ele>182.4</ele>
        <time>2010-01-01T00:00:00Z</time>
      </trkpt>
      <trkpt lat="48.20229" lon="-3.05514">
        <ele>188.2</ele>
        <time>2010-01-01T00:00:00Z</time>
      </trkpt>
      <trkpt lat="48.2021" lon="-3.05474">
        <ele>184.6</ele>
        <time>2010-01-01T00:00:00Z</time>
      </trkpt>
      <trkpt lat="48.20204" lon="-3.05465">
        <ele>184.5</ele>
        <time>2010-01-01T00:00:00Z</time>
      </trkpt>
      <trkpt lat="48.20199" lon="-3.0546">
        <ele>184.5</ele>
        <time>2010-01-01T00:00:00Z</time>
      </trkpt>
      <trkpt lat="48.2017" lon="-3.05441">
        <ele>184.5</ele>
        <time>2010-01-01T00:00:00Z</time>
      </trkpt>
      <trkpt lat="48.20149" lon="-3.05421">
        <ele>189.3</ele>
        <time>2010-01-01T00:00:00Z</time>
      </trkpt>
      <trkpt lat="48.20141" lon="-3.05414">
        <ele>186.3</ele>
        <time>2010-01-01T00:00:00Z</time>
      </trkpt>
      <trkpt lat="48.20136" lon="-3.05411">
        <ele>186.7</ele>
        <time>2010-01-01T00:00:00Z</time>
      </trkpt>
      <trkpt lat="48.20122" lon="-3.05405">
        <ele>187.9</ele>
        <time>2010-01-01T00:00:00Z</time>
      </trkpt>
      <trkpt lat="48.20111" lon="-3.05402">
        <ele>188.9</ele>
        <time>2010-01-01T00:00:00Z</time>
      </trkpt>
      <trkpt lat="48.20106" lon="-3.054">
        <ele>189.4</ele>
        <time>2010-01-01T00:00:00Z</time>
      </trkpt>
      <trkpt lat="48.20101" lon="-3.05398">
        <ele>189.8</ele>
        <time>2010-01-01T00:00:00Z</time>
      </trkpt>
      <trkpt lat="48.20096" lon="-3.05395">
        <ele>189.9</ele>
        <time>2010-01-01T00:00:00Z</time>
      </trkpt>
      <trkpt lat="48.20093" lon="-3.05391">
        <ele>189.8</ele>
        <time>2010-01-01T00:00:00Z</time>
      </trkpt>
      <trkpt lat="48.20089" lon="-3.05385">
        <ele>189.5</ele>
        <time>2010-01-01T00:00:00Z</time>
      </trkpt>
      <trkpt lat="48.20085" lon="-3.05389">
        <ele>190</ele>
        <time>2010-01-01T00:00:00Z</time>
      </trkpt>
      <trkpt lat="48.20085" lon="-3.05389">
        <ele>190</ele>
        <time>2010-01-01T00:00:00Z</time>
      </trkpt>
      <trkpt lat="48.20089" lon="-3.05385">
        <ele>189.5</ele>
        <time>2010-01-01T00:00:00Z</time>
      </trkpt>
      <trkpt lat="48.20091" lon="-3.05382">
        <ele>189.2</ele>
        <time>2010-01-01T00:00:00Z</time>
      </trkpt>
      <trkpt lat="48.20099" lon="-3.05368">
        <ele>188.3</ele>
        <time>2010-01-01T00:00:00Z</time>
      </trkpt>
      <trkpt lat="48.20104" lon="-3.05358">
        <ele>187.9</ele>
        <time>2010-01-01T00:00:00Z</time>
      </trkpt>
      <trkpt lat="48.20105" lon="-3.05349">
        <ele>187.9</ele>
        <time>2010-01-01T00:00:00Z</time>
      </trkpt>
      <trkpt lat="48.20105" lon="-3.05338">
        <ele>188</ele>
        <time>2010-01-01T00:00:00Z</time>
      </trkpt>
      <trkpt lat="48.20104" lon="-3.05324">
        <ele>187.1</ele>
        <time>2010-01-01T00:00:00Z</time>
      </trkpt>
      <trkpt lat="48.20102" lon="-3.05311">
        <ele>186.8</ele>
        <time>2010-01-01T00:00:00Z</time>
      </trkpt>
      <trkpt lat="48.20098" lon="-3.05285">
        <ele>187.2</ele>
        <time>2010-01-01T00:00:00Z</time>
      </trkpt>
      <trkpt lat="48.20092" lon="-3.05243">
        <ele>191.8</ele>
        <time>2010-01-01T00:00:00Z</time>
      </trkpt>
      <trkpt lat="48.20091" lon="-3.05215">
        <ele>190.8</ele>
        <time>2010-01-01T00:00:00Z</time>
      </trkpt>
      <trkpt lat="48.20091" lon="-3.05192">
        <ele>192.7</ele>
        <time>2010-01-01T00:00:00Z</time>
      </trkpt>
      <trkpt lat="48.20096" lon="-3.05174">
        <ele>195</ele>
        <time>2010-01-01T00:00:00Z</time>
      </trkpt>
      <trkpt lat="48.20106" lon="-3.0515">
        <ele>194.6</ele>
        <time>2010-01-01T00:00:00Z</time>
      </trkpt>
      <trkpt lat="48.20114" lon="-3.05127">
        <ele>193.4</ele>
        <time>2010-01-01T00:00:00Z</time>
      </trkpt>
      <trkpt lat="48.20117" lon="-3.05109">
        <ele>193.6</ele>
        <time>2010-01-01T00:00:00Z</time>
      </trkpt>
      <trkpt lat="48.20117" lon="-3.05096">
        <ele>194.1</ele>
        <time>2010-01-01T00:00:00Z</time>
      </trkpt>
      <trkpt lat="48.20114" lon="-3.05076">
        <ele>195.9</ele>
        <time>2010-01-01T00:00:00Z</time>
      </trkpt>
      <trkpt lat="48.20105" lon="-3.0504">
        <ele>196.6</ele>
        <time>2010-01-01T00:00:00Z</time>
      </trkpt>
      <trkpt lat="48.20094" lon="-3.04997">
        <ele>201.7</ele>
        <time>2010-01-01T00:00:00Z</time>
      </trkpt>
      <trkpt lat="48.20077" lon="-3.0494">
        <ele>210.9</ele>
        <time>2010-01-01T00:00:00Z</time>
      </trkpt>
      <trkpt lat="48.20073" lon="-3.0492">
        <ele>209</ele>
        <time>2010-01-01T00:00:00Z</time>
      </trkpt>
      <trkpt lat="48.20071" lon="-3.04913">
        <ele>208.3</ele>
        <time>2010-01-01T00:00:00Z</time>
      </trkpt>
      <trkpt lat="48.2007" lon="-3.04895">
        <ele>209.1</ele>
        <time>2010-01-01T00:00:00Z</time>
      </trkpt>
      <trkpt lat="48.2007" lon="-3.04883">
        <ele>209.1</ele>
        <time>2010-01-01T00:00:00Z</time>
      </trkpt>
      <trkpt lat="48.2007" lon="-3.04874">
        <ele>208.7</ele>
        <time>2010-01-01T00:00:00Z</time>
      </trkpt>
      <trkpt lat="48.20073" lon="-3.04856">
        <ele>206.7</ele>
        <time>2010-01-01T00:00:00Z</time>
      </trkpt>
      <trkpt lat="48.20077" lon="-3.04836">
        <ele>202.1</ele>
        <time>2010-01-01T00:00:00Z</time>
      </trkpt>
      <trkpt lat="48.20078" lon="-3.04815">
        <ele>202.6</ele>
        <time>2010-01-01T00:00:00Z</time>
      </trkpt>
      <trkpt lat="48.20078" lon="-3.04798">
        <ele>203.3</ele>
        <time>2010-01-01T00:00:00Z</time>
      </trkpt>
      <trkpt lat="48.20078" lon="-3.04786">
        <ele>202.8</ele>
        <time>2010-01-01T00:00:00Z</time>
      </trkpt>
      <trkpt lat="48.20075" lon="-3.04773">
        <ele>201.8</ele>
        <time>2010-01-01T00:00:00Z</time>
      </trkpt>
      <trkpt lat="48.20071" lon="-3.04759">
        <ele>200.3</ele>
        <time>2010-01-01T00:00:00Z</time>
      </trkpt>
      <trkpt lat="48.20063" lon="-3.04746">
        <ele>198.6</ele>
        <time>2010-01-01T00:00:00Z</time>
      </trkpt>
      <trkpt lat="48.20057" lon="-3.04736">
        <ele>199.5</ele>
        <time>2010-01-01T00:00:00Z</time>
      </trkpt>
      <trkpt lat="48.20054" lon="-3.04731">
        <ele>199.9</ele>
        <time>2010-01-01T00:00:00Z</time>
      </trkpt>
      <trkpt lat="48.20048" lon="-3.04717">
        <ele>200.3</ele>
        <time>2010-01-01T00:00:00Z</time>
      </trkpt>
      <trkpt lat="48.20043" lon="-3.04695">
        <ele>200</ele>
        <time>2010-01-01T00:00:00Z</time>
      </trkpt>
      <trkpt lat="48.20041" lon="-3.04689">
        <ele>200.1</ele>
        <time>2010-01-01T00:00:00Z</time>
      </trkpt>
      <trkpt lat="48.20039" lon="-3.04678">
        <ele>200.3</ele>
        <time>2010-01-01T00:00:00Z</time>
      </trkpt>
      <trkpt lat="48.20034" lon="-3.04641">
        <ele>198</ele>
        <time>2010-01-01T00:00:00Z</time>
      </trkpt>
      <trkpt lat="48.20025" lon="-3.04566">
        <ele>198.8</ele>
        <time>2010-01-01T00:00:00Z</time>
      </trkpt>
      <trkpt lat="48.2002" lon="-3.0453">
        <ele>198.6</ele>
        <time>2010-01-01T00:00:00Z</time>
      </trkpt>
      <trkpt lat="48.20012" lon="-3.04494">
        <ele>201.1</ele>
        <time>2010-01-01T00:00:00Z</time>
      </trkpt>
      <trkpt lat="48.2" lon="-3.04433">
        <ele>201.6</ele>
        <time>2010-01-01T00:00:00Z</time>
      </trkpt>
      <trkpt lat="48.19993" lon="-3.04403">
        <ele>208.2</ele>
        <time>2010-01-01T00:00:00Z</time>
      </trkpt>
      <trkpt lat="48.19982" lon="-3.04369">
        <ele>210.3</ele>
        <time>2010-01-01T00:00:00Z</time>
      </trkpt>
      <trkpt lat="48.19978" lon="-3.04354">
        <ele>210.2</ele>
        <time>2010-01-01T00:00:00Z</time>
      </trkpt>
      <trkpt lat="48.19973" lon="-3.0433">
        <ele>209.7</ele>
        <time>2010-01-01T00:00:00Z</time>
      </trkpt>
      <trkpt lat="48.19969" lon="-3.04292">
        <ele>210.4</ele>
        <time>2010-01-01T00:00:00Z</time>
      </trkpt>
      <trkpt lat="48.19965" lon="-3.04269">
        <ele>210.4</ele>
        <time>2010-01-01T00:00:00Z</time>
      </trkpt>
      <trkpt lat="48.19963" lon="-3.04261">
        <ele>210.5</ele>
        <time>2010-01-01T00:00:00Z</time>
      </trkpt>
      <trkpt lat="48.19956" lon="-3.04244">
        <ele>210.9</ele>
        <time>2010-01-01T00:00:00Z</time>
      </trkpt>
      <trkpt lat="48.1994" lon="-3.04213">
        <ele>212.1</ele>
        <time>2010-01-01T00:00:00Z</time>
      </trkpt>
      <trkpt lat="48.19925" lon="-3.0418">
        <ele>214.2</ele>
        <time>2010-01-01T00:00:00Z</time>
      </trkpt>
      <trkpt lat="48.1991" lon="-3.04147">
        <ele>217.9</ele>
        <time>2010-01-01T00:00:00Z</time>
      </trkpt>
      <trkpt lat="48.19903" lon="-3.0413">
        <ele>217.9</ele>
        <time>2010-01-01T00:00:00Z</time>
      </trkpt>
      <trkpt lat="48.19895" lon="-3.04103">
        <ele>217.2</ele>
        <time>2010-01-01T00:00:00Z</time>
      </trkpt>
      <trkpt lat="48.19889" lon="-3.04083">
        <ele>213.8</ele>
        <time>2010-01-01T00:00:00Z</time>
      </trkpt>
      <trkpt lat="48.19875" lon="-3.04052">
        <ele>213.4</ele>
        <time>2010-01-01T00:00:00Z</time>
      </trkpt>
      <trkpt lat="48.1986" lon="-3.04026">
        <ele>212.3</ele>
        <time>2010-01-01T00:00:00Z</time>
      </trkpt>
      <trkpt lat="48.19852" lon="-3.04019">
        <ele>211.8</ele>
        <time>2010-01-01T00:00:00Z</time>
      </trkpt>
      <trkpt lat="48.19843" lon="-3.04013">
        <ele>211</ele>
        <time>2010-01-01T00:00:00Z</time>
      </trkpt>
      <trkpt lat="48.19832" lon="-3.04009">
        <ele>209.9</ele>
        <time>2010-01-01T00:00:00Z</time>
      </trkpt>
      <trkpt lat="48.19812" lon="-3.04007">
        <ele>210.4</ele>
        <time>2010-01-01T00:00:00Z</time>
      </trkpt>
      <trkpt lat="48.19789" lon="-3.04001">
        <ele>209.8</ele>
        <time>2010-01-01T00:00:00Z</time>
      </trkpt>
      <trkpt lat="48.19773" lon="-3.03998">
        <ele>203.3</ele>
        <time>2010-01-01T00:00:00Z</time>
      </trkpt>
      <trkpt lat="48.19752" lon="-3.03998">
        <ele>203.8</ele>
        <time>2010-01-01T00:00:00Z</time>
      </trkpt>
      <trkpt lat="48.19734" lon="-3.03999">
        <ele>203.7</ele>
        <time>2010-01-01T00:00:00Z</time>
      </trkpt>
      <trkpt lat="48.1972" lon="-3.04001">
        <ele>208</ele>
        <time>2010-01-01T00:00:00Z</time>
      </trkpt>
      <trkpt lat="48.19713" lon="-3.03998">
        <ele>204</ele>
        <time>2010-01-01T00:00:00Z</time>
      </trkpt>
      <trkpt lat="48.19703" lon="-3.03995">
        <ele>204.2</ele>
        <time>2010-01-01T00:00:00Z</time>
      </trkpt>
      <trkpt lat="48.19699" lon="-3.03995">
        <ele>204.4</ele>
        <time>2010-01-01T00:00:00Z</time>
      </trkpt>
      <trkpt lat="48.19693" lon="-3.03998">
        <ele>204.7</ele>
        <time>2010-01-01T00:00:00Z</time>
      </trkpt>
      <trkpt lat="48.19693" lon="-3.03998">
        <ele>204.7</ele>
        <time>2010-01-01T00:00:00Z</time>
      </trkpt>
      <trkpt lat="48.19693" lon="-3.03998">
        <ele>204.7</ele>
        <time>2010-01-01T00:00:00Z</time>
      </trkpt>
      <trkpt lat="48.19689" lon="-3.04001">
        <ele>208.4</ele>
        <time>2010-01-01T00:00:00Z</time>
      </trkpt>
      <trkpt lat="48.19686" lon="-3.04">
        <ele>208.3</ele>
        <time>2010-01-01T00:00:00Z</time>
      </trkpt>
      <trkpt lat="48.19684" lon="-3.03997">
        <ele>205.2</ele>
        <time>2010-01-01T00:00:00Z</time>
      </trkpt>
      <trkpt lat="48.1968" lon="-3.03986">
        <ele>205</ele>
        <time>2010-01-01T00:00:00Z</time>
      </trkpt>
      <trkpt lat="48.19673" lon="-3.03965">
        <ele>204.3</ele>
        <time>2010-01-01T00:00:00Z</time>
      </trkpt>
      <trkpt lat="48.19672" lon="-3.03949">
        <ele>203.8</ele>
        <time>2010-01-01T00:00:00Z</time>
      </trkpt>
      <trkpt lat="48.19672" lon="-3.03934">
        <ele>203.7</ele>
        <time>2010-01-01T00:00:00Z</time>
      </trkpt>
      <trkpt lat="48.19673" lon="-3.03932">
        <ele>203.7</ele>
        <time>2010-01-01T00:00:00Z</time>
      </trkpt>
      <trkpt lat="48.19677" lon="-3.03917">
        <ele>203.6</ele>
        <time>2010-01-01T00:00:00Z</time>
      </trkpt>
      <trkpt lat="48.19684" lon="-3.03901">
        <ele>201.7</ele>
        <time>2010-01-01T00:00:00Z</time>
      </trkpt>
      <trkpt lat="48.19691" lon="-3.03888">
        <ele>201.1</ele>
        <time>2010-01-01T00:00:00Z</time>
      </trkpt>
      <trkpt lat="48.19699" lon="-3.03877">
        <ele>200.6</ele>
        <time>2010-01-01T00:00:00Z</time>
      </trkpt>
      <trkpt lat="48.19714" lon="-3.03861">
        <ele>199.9</ele>
        <time>2010-01-01T00:00:00Z</time>
      </trkpt>
      <trkpt lat="48.19723" lon="-3.03852">
        <ele>199.3</ele>
        <time>2010-01-01T00:00:00Z</time>
      </trkpt>
      <trkpt lat="48.19728" lon="-3.03841">
        <ele>198.7</ele>
        <time>2010-01-01T00:00:00Z</time>
      </trkpt>
      <trkpt lat="48.1973" lon="-3.0383">
        <ele>198.4</ele>
        <time>2010-01-01T00:00:00Z</time>
      </trkpt>
      <trkpt lat="48.19731" lon="-3.03824">
        <ele>198.4</ele>
        <time>2010-01-01T00:00:00Z</time>
      </trkpt>
      <trkpt lat="48.19731" lon="-3.03804">
        <ele>199</ele>
        <time>2010-01-01T00:00:00Z</time>
      </trkpt>
      <trkpt lat="48.1973" lon="-3.03765">
        <ele>198.9</ele>
        <time>2010-01-01T00:00:00Z</time>
      </trkpt>
      <trkpt lat="48.19727" lon="-3.03714">
        <ele>200.2</ele>
        <time>2010-01-01T00:00:00Z</time>
      </trkpt>
      <trkpt lat="48.19726" lon="-3.03676">
        <ele>199.2</ele>
        <time>2010-01-01T00:00:00Z</time>
      </trkpt>
      <trkpt lat="48.19723" lon="-3.03652">
        <ele>199.8</ele>
        <time>2010-01-01T00:00:00Z</time>
      </trkpt>
      <trkpt lat="48.19716" lon="-3.03628">
        <ele>201</ele>
        <time>2010-01-01T00:00:00Z</time>
      </trkpt>
      <trkpt lat="48.1971" lon="-3.03591">
        <ele>201.5</ele>
        <time>2010-01-01T00:00:00Z</time>
      </trkpt>
      <trkpt lat="48.19702" lon="-3.03557">
        <ele>200.7</ele>
        <time>2010-01-01T00:00:00Z</time>
      </trkpt>
      <trkpt lat="48.19689" lon="-3.03515">
        <ele>202.2</ele>
        <time>2010-01-01T00:00:00Z</time>
      </trkpt>
      <trkpt lat="48.19679" lon="-3.03496">
        <ele>200.8</ele>
        <time>2010-01-01T00:00:00Z</time>
      </trkpt>
      <trkpt lat="48.19666" lon="-3.03482">
        <ele>208.6</ele>
        <time>2010-01-01T00:00:00Z</time>
      </trkpt>
      <trkpt lat="48.19654" lon="-3.03472">
        <ele>208.4</ele>
        <time>2010-01-01T00:00:00Z</time>
      </trkpt>
      <trkpt lat="48.1964" lon="-3.03461">
        <ele>208.5</ele>
        <time>2010-01-01T00:00:00Z</time>
      </trkpt>
      <trkpt lat="48.19621" lon="-3.03438">
        <ele>209</ele>
        <time>2010-01-01T00:00:00Z</time>
      </trkpt>
      <trkpt lat="48.19603" lon="-3.03414">
        <ele>203.7</ele>
        <time>2010-01-01T00:00:00Z</time>
      </trkpt>
      <trkpt lat="48.19585" lon="-3.03393">
        <ele>202.6</ele>
        <time>2010-01-01T00:00:00Z</time>
      </trkpt>
      <trkpt lat="48.19565" lon="-3.03373">
        <ele>208.9</ele>
        <time>2010-01-01T00:00:00Z</time>
      </trkpt>
      <trkpt lat="48.19547" lon="-3.03354">
        <ele>208.3</ele>
        <time>2010-01-01T00:00:00Z</time>
      </trkpt>
      <trkpt lat="48.19532" lon="-3.03334">
        <ele>208.9</ele>
        <time>2010-01-01T00:00:00Z</time>
      </trkpt>
      <trkpt lat="48.19521" lon="-3.03316">
        <ele>200.9</ele>
        <time>2010-01-01T00:00:00Z</time>
      </trkpt>
      <trkpt lat="48.1951" lon="-3.03296">
        <ele>199</ele>
        <time>2010-01-01T00:00:00Z</time>
      </trkpt>
      <trkpt lat="48.195" lon="-3.03282">
        <ele>197.8</ele>
        <time>2010-01-01T00:00:00Z</time>
      </trkpt>
      <trkpt lat="48.19491" lon="-3.03275">
        <ele>204</ele>
        <time>2010-01-01T00:00:00Z</time>
      </trkpt>
      <trkpt lat="48.19476" lon="-3.03264">
        <ele>204</ele>
        <time>2010-01-01T00:00:00Z</time>
      </trkpt>
      <trkpt lat="48.19465" lon="-3.03254">
        <ele>204.7</ele>
        <time>2010-01-01T00:00:00Z</time>
      </trkpt>
      <trkpt lat="48.19453" lon="-3.03239">
        <ele>198.6</ele>
        <time>2010-01-01T00:00:00Z</time>
      </trkpt>
      <trkpt lat="48.1944" lon="-3.03215">
        <ele>198.1</ele>
        <time>2010-01-01T00:00:00Z</time>
      </trkpt>
      <trkpt lat="48.19429" lon="-3.03188">
        <ele>197.1</ele>
        <time>2010-01-01T00:00:00Z</time>
      </trkpt>
      <trkpt lat="48.19426" lon="-3.03175">
        <ele>197.2</ele>
        <time>2010-01-01T00:00:00Z</time>
      </trkpt>
      <trkpt lat="48.19425" lon="-3.03164">
        <ele>194.9</ele>
        <time>2010-01-01T00:00:00Z</time>
      </trkpt>
      <trkpt lat="48.19423" lon="-3.03126">
        <ele>190.4</ele>
        <time>2010-01-01T00:00:00Z</time>
      </trkpt>
      <trkpt lat="48.19423" lon="-3.03099">
        <ele>190.9</ele>
        <time>2010-01-01T00:00:00Z</time>
      </trkpt>
      <trkpt lat="48.19425" lon="-3.0309">
        <ele>191.6</ele>
        <time>2010-01-01T00:00:00Z</time>
      </trkpt>
      <trkpt lat="48.19428" lon="-3.03081">
        <ele>188.9</ele>
        <time>2010-01-01T00:00:00Z</time>
      </trkpt>
      <trkpt lat="48.19435" lon="-3.03067">
        <ele>185.4</ele>
        <time>2010-01-01T00:00:00Z</time>
      </trkpt>
      <trkpt lat="48.19438" lon="-3.03056">
        <ele>183.8</ele>
        <time>2010-01-01T00:00:00Z</time>
      </trkpt>
      <trkpt lat="48.19439" lon="-3.03046">
        <ele>183</ele>
        <time>2010-01-01T00:00:00Z</time>
      </trkpt>
      <trkpt lat="48.19439" lon="-3.03036">
        <ele>182.7</ele>
        <time>2010-01-01T00:00:00Z</time>
      </trkpt>
      <trkpt lat="48.19436" lon="-3.03017">
        <ele>183.8</ele>
        <time>2010-01-01T00:00:00Z</time>
      </trkpt>
      <trkpt lat="48.1943" lon="-3.02997">
        <ele>183.2</ele>
        <time>2010-01-01T00:00:00Z</time>
      </trkpt>
      <trkpt lat="48.19424" lon="-3.02988">
        <ele>183.3</ele>
        <time>2010-01-01T00:00:00Z</time>
      </trkpt>
      <trkpt lat="48.19415" lon="-3.02976">
        <ele>191.1</ele>
        <time>2010-01-01T00:00:00Z</time>
      </trkpt>
      <trkpt lat="48.19408" lon="-3.02965">
        <ele>190.7</ele>
        <time>2010-01-01T00:00:00Z</time>
      </trkpt>
      <trkpt lat="48.19404" lon="-3.02955">
        <ele>190.2</ele>
        <time>2010-01-01T00:00:00Z</time>
      </trkpt>
      <trkpt lat="48.19402" lon="-3.0294">
        <ele>189.4</ele>
        <time>2010-01-01T00:00:00Z</time>
      </trkpt>
      <trkpt lat="48.19401" lon="-3.0293">
        <ele>188.8</ele>
        <time>2010-01-01T00:00:00Z</time>
      </trkpt>
      <trkpt lat="48.19402" lon="-3.02918">
        <ele>188.2</ele>
        <time>2010-01-01T00:00:00Z</time>
      </trkpt>
      <trkpt lat="48.19405" lon="-3.029">
        <ele>187</ele>
        <time>2010-01-01T00:00:00Z</time>
      </trkpt>
      <trkpt lat="48.1941" lon="-3.02867">
        <ele>187.4</ele>
        <time>2010-01-01T00:00:00Z</time>
      </trkpt>
      <trkpt lat="48.19411" lon="-3.02849">
        <ele>187.6</ele>
        <time>2010-01-01T00:00:00Z</time>
      </trkpt>
      <trkpt lat="48.19411" lon="-3.02835">
        <ele>187.8</ele>
        <time>2010-01-01T00:00:00Z</time>
      </trkpt>
      <trkpt lat="48.19409" lon="-3.02782">
        <ele>186.4</ele>
        <time>2010-01-01T00:00:00Z</time>
      </trkpt>
      <trkpt lat="48.19409" lon="-3.02761">
        <ele>186.6</ele>
        <time>2010-01-01T00:00:00Z</time>
      </trkpt>
      <trkpt lat="48.19409" lon="-3.02755">
        <ele>186.7</ele>
        <time>2010-01-01T00:00:00Z</time>
      </trkpt>
      <trkpt lat="48.19411" lon="-3.02737">
        <ele>185.3</ele>
        <time>2010-01-01T00:00:00Z</time>
      </trkpt>
      <trkpt lat="48.19414" lon="-3.02705">
        <ele>183.8</ele>
        <time>2010-01-01T00:00:00Z</time>
      </trkpt>
      <trkpt lat="48.19419" lon="-3.02668">
        <ele>182.3</ele>
        <time>2010-01-01T00:00:00Z</time>
      </trkpt>
      <trkpt lat="48.19422" lon="-3.02635">
        <ele>173.4</ele>
        <time>2010-01-01T00:00:00Z</time>
      </trkpt>
      <trkpt lat="48.19423" lon="-3.02606">
        <ele>173.9</ele>
        <time>2010-01-01T00:00:00Z</time>
      </trkpt>
      <trkpt lat="48.19423" lon="-3.02589">
        <ele>177.7</ele>
        <time>2010-01-01T00:00:00Z</time>
      </trkpt>
      <trkpt lat="48.19422" lon="-3.02565">
        <ele>174.3</ele>
        <time>2010-01-01T00:00:00Z</time>
      </trkpt>
      <trkpt lat="48.1942" lon="-3.02544">
        <ele>172.2</ele>
        <time>2010-01-01T00:00:00Z</time>
      </trkpt>
      <trkpt lat="48.1942" lon="-3.02522">
        <ele>173.8</ele>
        <time>2010-01-01T00:00:00Z</time>
      </trkpt>
      <trkpt lat="48.19423" lon="-3.02502">
        <ele>178.3</ele>
        <time>2010-01-01T00:00:00Z</time>
      </trkpt>
      <trkpt lat="48.19427" lon="-3.02475">
        <ele>174.3</ele>
        <time>2010-01-01T00:00:00Z</time>
      </trkpt>
      <trkpt lat="48.19429" lon="-3.02456">
        <ele>173.6</ele>
        <time>2010-01-01T00:00:00Z</time>
      </trkpt>
      <trkpt lat="48.19428" lon="-3.02449">
        <ele>174</ele>
        <time>2010-01-01T00:00:00Z</time>
      </trkpt>
      <trkpt lat="48.19426" lon="-3.02444">
        <ele>174.7</ele>
        <time>2010-01-01T00:00:00Z</time>
      </trkpt>
      <trkpt lat="48.19422" lon="-3.02436">
        <ele>176.2</ele>
        <time>2010-01-01T00:00:00Z</time>
      </trkpt>
      <trkpt lat="48.1942" lon="-3.02439">
        <ele>175.9</ele>
        <time>2010-01-01T00:00:00Z</time>
      </trkpt>
      <trkpt lat="48.1942" lon="-3.02439">
        <ele>175.9</ele>
        <time>2010-01-01T00:00:00Z</time>
      </trkpt>
      <trkpt lat="48.19413" lon="-3.02449">
        <ele>178</ele>
        <time>2010-01-01T00:00:00Z</time>
      </trkpt>
      <trkpt lat="48.19407" lon="-3.02452">
        <ele>177.6</ele>
        <time>2010-01-01T00:00:00Z</time>
      </trkpt>
      <trkpt lat="48.19395" lon="-3.02456">
        <ele>176.7</ele>
        <time>2010-01-01T00:00:00Z</time>
      </trkpt>
      <trkpt lat="48.19378" lon="-3.0246">
        <ele>175.3</ele>
        <time>2010-01-01T00:00:00Z</time>
      </trkpt>
      <trkpt lat="48.19372" lon="-3.02465">
        <ele>174.8</ele>
        <time>2010-01-01T00:00:00Z</time>
      </trkpt>
      <trkpt lat="48.19369" lon="-3.02474">
        <ele>174.5</ele>
        <time>2010-01-01T00:00:00Z</time>
      </trkpt>
      <trkpt lat="48.19366" lon="-3.02488">
        <ele>174.2</ele>
        <time>2010-01-01T00:00:00Z</time>
      </trkpt>
      <trkpt lat="48.1936" lon="-3.02509">
        <ele>174.5</ele>
        <time>2010-01-01T00:00:00Z</time>
      </trkpt>
      <trkpt lat="48.19352" lon="-3.02527">
        <ele>174.5</ele>
        <time>2010-01-01T00:00:00Z</time>
      </trkpt>
      <trkpt lat="48.19344" lon="-3.02546">
        <ele>174.8</ele>
        <time>2010-01-01T00:00:00Z</time>
      </trkpt>
      <trkpt lat="48.1933" lon="-3.02569">
        <ele>171.1</ele>
        <time>2010-01-01T00:00:00Z</time>
      </trkpt>
      <trkpt lat="48.19319" lon="-3.02583">
        <ele>171.1</ele>
        <time>2010-01-01T00:00:00Z</time>
      </trkpt>
      <trkpt lat="48.19312" lon="-3.0259">
        <ele>172.9</ele>
        <time>2010-01-01T00:00:00Z</time>
      </trkpt>
      <trkpt lat="48.19301" lon="-3.02597">
        <ele>172.7</ele>
        <time>2010-01-01T00:00:00Z</time>
      </trkpt>
      <trkpt lat="48.19296" lon="-3.02598">
        <ele>172.6</ele>
        <time>2010-01-01T00:00:00Z</time>
      </trkpt>
      <trkpt lat="48.19286" lon="-3.02597">
        <ele>172.2</ele>
        <time>2010-01-01T00:00:00Z</time>
      </trkpt>
      <trkpt lat="48.19285" lon="-3.026">
        <ele>172.2</ele>
        <time>2010-01-01T00:00:00Z</time>
      </trkpt>
      <trkpt lat="48.19285" lon="-3.026">
        <ele>172.2</ele>
        <time>2010-01-01T00:00:00Z</time>
      </trkpt>
      <trkpt lat="48.19286" lon="-3.02597">
        <ele>172.2</ele>
        <time>2010-01-01T00:00:00Z</time>
      </trkpt>
      <trkpt lat="48.19275" lon="-3.02598">
        <ele>171.7</ele>
        <time>2010-01-01T00:00:00Z</time>
      </trkpt>
      <trkpt lat="48.19271" lon="-3.02604">
        <ele>171.8</ele>
        <time>2010-01-01T00:00:00Z</time>
      </trkpt>
      <trkpt lat="48.19268" lon="-3.02608">
        <ele>171.8</ele>
        <time>2010-01-01T00:00:00Z</time>
      </trkpt>
      <trkpt lat="48.19264" lon="-3.02609">
        <ele>171.7</ele>
        <time>2010-01-01T00:00:00Z</time>
      </trkpt>
      <trkpt lat="48.19258" lon="-3.02611">
        <ele>171.6</ele>
        <time>2010-01-01T00:00:00Z</time>
      </trkpt>
      <trkpt lat="48.19251" lon="-3.02612">
        <ele>171.6</ele>
        <time>2010-01-01T00:00:00Z</time>
      </trkpt>
      <trkpt lat="48.19247" lon="-3.02615">
        <ele>172.2</ele>
        <time>2010-01-01T00:00:00Z</time>
      </trkpt>
      <trkpt lat="48.19243" lon="-3.02616">
        <ele>172.3</ele>
        <time>2010-01-01T00:00:00Z</time>
      </trkpt>
      <trkpt lat="48.19237" lon="-3.02617">
        <ele>172.5</ele>
        <time>2010-01-01T00:00:00Z</time>
      </trkpt>
      <trkpt lat="48.19231" lon="-3.02615">
        <ele>172.7</ele>
        <time>2010-01-01T00:00:00Z</time>
      </trkpt>
      <trkpt lat="48.19227" lon="-3.02612">
        <ele>172.8</ele>
        <time>2010-01-01T00:00:00Z</time>
      </trkpt>
      <trkpt lat="48.19221" lon="-3.02612">
        <ele>173</ele>
        <time>2010-01-01T00:00:00Z</time>
      </trkpt>
      <trkpt lat="48.19216" lon="-3.02613">
        <ele>173.3</ele>
        <time>2010-01-01T00:00:00Z</time>
      </trkpt>
      <trkpt lat="48.19211" lon="-3.02611">
        <ele>173.5</ele>
        <time>2010-01-01T00:00:00Z</time>
      </trkpt>
      <trkpt lat="48.19205" lon="-3.02612">
        <ele>173.8</ele>
        <time>2010-01-01T00:00:00Z</time>
      </trkpt>
      <trkpt lat="48.192" lon="-3.02613">
        <ele>174</ele>
        <time>2010-01-01T00:00:00Z</time>
      </trkpt>
      <trkpt lat="48.19196" lon="-3.02612">
        <ele>174.2</ele>
        <time>2010-01-01T00:00:00Z</time>
      </trkpt>
      <trkpt lat="48.19192" lon="-3.02608">
        <ele>174.4</ele>
        <time>2010-01-01T00:00:00Z</time>
      </trkpt>
      <trkpt lat="48.19192" lon="-3.02606">
        <ele>174.4</ele>
        <time>2010-01-01T00:00:00Z</time>
      </trkpt>
      <trkpt lat="48.19192" lon="-3.02599">
        <ele>174.5</ele>
        <time>2010-01-01T00:00:00Z</time>
      </trkpt>
      <trkpt lat="48.19191" lon="-3.02591">
        <ele>174.6</ele>
        <time>2010-01-01T00:00:00Z</time>
      </trkpt>
      <trkpt lat="48.1919" lon="-3.02585">
        <ele>174.7</ele>
        <time>2010-01-01T00:00:00Z</time>
      </trkpt>
      <trkpt lat="48.19189" lon="-3.02577">
        <ele>173.2</ele>
        <time>2010-01-01T00:00:00Z</time>
      </trkpt>
      <trkpt lat="48.19189" lon="-3.02568">
        <ele>172.9</ele>
        <time>2010-01-01T00:00:00Z</time>
      </trkpt>
      <trkpt lat="48.19188" lon="-3.0256">
        <ele>172.5</ele>
        <time>2010-01-01T00:00:00Z</time>
      </trkpt>
      <trkpt lat="48.1919" lon="-3.02552">
        <ele>172.1</ele>
        <time>2010-01-01T00:00:00Z</time>
      </trkpt>
      <trkpt lat="48.19188" lon="-3.02544">
        <ele>171.9</ele>
        <time>2010-01-01T00:00:00Z</time>
      </trkpt>
      <trkpt lat="48.19184" lon="-3.02539">
        <ele>172</ele>
        <time>2010-01-01T00:00:00Z</time>
      </trkpt>
      <trkpt lat="48.19182" lon="-3.02533">
        <ele>171.9</ele>
        <time>2010-01-01T00:00:00Z</time>
      </trkpt>
      <trkpt lat="48.19181" lon="-3.02525">
        <ele>172</ele>
        <time>2010-01-01T00:00:00Z</time>
      </trkpt>
      <trkpt lat="48.19181" lon="-3.02516">
        <ele>172.1</ele>
        <time>2010-01-01T00:00:00Z</time>
      </trkpt>
      <trkpt lat="48.19185" lon="-3.02499">
        <ele>169.4</ele>
        <time>2010-01-01T00:00:00Z</time>
      </trkpt>
      <trkpt lat="48.19188" lon="-3.02487">
        <ele>168.2</ele>
        <time>2010-01-01T00:00:00Z</time>
      </trkpt>
      <trkpt lat="48.19189" lon="-3.02479">
        <ele>167.5</ele>
        <time>2010-01-01T00:00:00Z</time>
      </trkpt>
      <trkpt lat="48.19194" lon="-3.02463">
        <ele>166.1</ele>
        <time>2010-01-01T00:00:00Z</time>
      </trkpt>
      <trkpt lat="48.19195" lon="-3.02454">
        <ele>165.7</ele>
        <time>2010-01-01T00:00:00Z</time>
      </trkpt>
      <trkpt lat="48.19197" lon="-3.02448">
        <ele>165.3</ele>
        <time>2010-01-01T00:00:00Z</time>
      </trkpt>
      <trkpt lat="48.192" lon="-3.02441">
        <ele>164.9</ele>
        <time>2010-01-01T00:00:00Z</time>
      </trkpt>
      <trkpt lat="48.19204" lon="-3.02439">
        <ele>164.6</ele>
        <time>2010-01-01T00:00:00Z</time>
      </trkpt>
      <trkpt lat="48.19208" lon="-3.02435">
        <ele>164.1</ele>
        <time>2010-01-01T00:00:00Z</time>
      </trkpt>
      <trkpt lat="48.19213" lon="-3.0243">
        <ele>163.5</ele>
        <time>2010-01-01T00:00:00Z</time>
      </trkpt>
      <trkpt lat="48.19217" lon="-3.02426">
        <ele>163</ele>
        <time>2010-01-01T00:00:00Z</time>
      </trkpt>
      <trkpt lat="48.19222" lon="-3.02413">
        <ele>157.6</ele>
        <time>2010-01-01T00:00:00Z</time>
      </trkpt>
      <trkpt lat="48.19223" lon="-3.02405">
        <ele>157.4</ele>
        <time>2010-01-01T00:00:00Z</time>
      </trkpt>
      <trkpt lat="48.1922" lon="-3.02397">
        <ele>157.4</ele>
        <time>2010-01-01T00:00:00Z</time>
      </trkpt>
      <trkpt lat="48.19219" lon="-3.02389">
        <ele>157.1</ele>
        <time>2010-01-01T00:00:00Z</time>
      </trkpt>
      <trkpt lat="48.19222" lon="-3.02381">
        <ele>156.5</ele>
        <time>2010-01-01T00:00:00Z</time>
      </trkpt>
      <trkpt lat="48.19223" lon="-3.02374">
        <ele>156</ele>
        <time>2010-01-01T00:00:00Z</time>
      </trkpt>
      <trkpt lat="48.19223" lon="-3.02366">
        <ele>155.5</ele>
        <time>2010-01-01T00:00:00Z</time>
      </trkpt>
      <trkpt lat="48.19223" lon="-3.02359">
        <ele>154.9</ele>
        <time>2010-01-01T00:00:00Z</time>
      </trkpt>
      <trkpt lat="48.19224" lon="-3.0235">
        <ele>154</ele>
        <time>2010-01-01T00:00:00Z</time>
      </trkpt>
      <trkpt lat="48.19222" lon="-3.02342">
        <ele>153.8</ele>
        <time>2010-01-01T00:00:00Z</time>
      </trkpt>
      <trkpt lat="48.1922" lon="-3.02333">
        <ele>148.8</ele>
        <time>2010-01-01T00:00:00Z</time>
      </trkpt>
      <trkpt lat="48.19219" lon="-3.02327">
        <ele>148.8</ele>
        <time>2010-01-01T00:00:00Z</time>
      </trkpt>
      <trkpt lat="48.19219" lon="-3.02317">
        <ele>148.6</ele>
        <time>2010-01-01T00:00:00Z</time>
      </trkpt>
      <trkpt lat="48.19218" lon="-3.02311">
        <ele>148.6</ele>
        <time>2010-01-01T00:00:00Z</time>
      </trkpt>
      <trkpt lat="48.19217" lon="-3.02303">
        <ele>148.4</ele>
        <time>2010-01-01T00:00:00Z</time>
      </trkpt>
      <trkpt lat="48.19217" lon="-3.02295">
        <ele>148</ele>
        <time>2010-01-01T00:00:00Z</time>
      </trkpt>
      <trkpt lat="48.19216" lon="-3.02287">
        <ele>147.7</ele>
        <time>2010-01-01T00:00:00Z</time>
      </trkpt>
      <trkpt lat="48.19214" lon="-3.0228">
        <ele>147.5</ele>
        <time>2010-01-01T00:00:00Z</time>
      </trkpt>
      <trkpt lat="48.19209" lon="-3.02264">
        <ele>147.4</ele>
        <time>2010-01-01T00:00:00Z</time>
      </trkpt>
      <trkpt lat="48.19207" lon="-3.02258">
        <ele>147.5</ele>
        <time>2010-01-01T00:00:00Z</time>
      </trkpt>
      <trkpt lat="48.19206" lon="-3.0225">
        <ele>145</ele>
        <time>2010-01-01T00:00:00Z</time>
      </trkpt>
      <trkpt lat="48.19205" lon="-3.02241">
        <ele>138.9</ele>
        <time>2010-01-01T00:00:00Z</time>
      </trkpt>
      <trkpt lat="48.19203" lon="-3.02234">
        <ele>138.7</ele>
        <time>2010-01-01T00:00:00Z</time>
      </trkpt>
      <trkpt lat="48.19201" lon="-3.02228">
        <ele>138.4</ele>
        <time>2010-01-01T00:00:00Z</time>
      </trkpt>
      <trkpt lat="48.19196" lon="-3.02216">
        <ele>137.6</ele>
        <time>2010-01-01T00:00:00Z</time>
      </trkpt>
      <trkpt lat="48.19193" lon="-3.02212">
        <ele>137.5</ele>
        <time>2010-01-01T00:00:00Z</time>
      </trkpt>
      <trkpt lat="48.19188" lon="-3.02204">
        <ele>136.9</ele>
        <time>2010-01-01T00:00:00Z</time>
      </trkpt>
      <trkpt lat="48.19183" lon="-3.02201">
        <ele>137</ele>
        <time>2010-01-01T00:00:00Z</time>
      </trkpt>
      <trkpt lat="48.1918" lon="-3.02197">
        <ele>136.8</ele>
        <time>2010-01-01T00:00:00Z</time>
      </trkpt>
      <trkpt lat="48.19178" lon="-3.0219">
        <ele>136.3</ele>
        <time>2010-01-01T00:00:00Z</time>
      </trkpt>
      <trkpt lat="48.19181" lon="-3.02187">
        <ele>135.9</ele>
        <time>2010-01-01T00:00:00Z</time>
      </trkpt>
      <trkpt lat="48.19184" lon="-3.02188">
        <ele>135.7</ele>
        <time>2010-01-01T00:00:00Z</time>
      </trkpt>
      <trkpt lat="48.19189" lon="-3.02188">
        <ele>135.4</ele>
        <time>2010-01-01T00:00:00Z</time>
      </trkpt>
      <trkpt lat="48.19195" lon="-3.02188">
        <ele>134.8</ele>
        <time>2010-01-01T00:00:00Z</time>
      </trkpt>
      <trkpt lat="48.192" lon="-3.02188">
        <ele>134.2</ele>
        <time>2010-01-01T00:00:00Z</time>
      </trkpt>
      <trkpt lat="48.19206" lon="-3.02186">
        <ele>133.3</ele>
        <time>2010-01-01T00:00:00Z</time>
      </trkpt>
      <trkpt lat="48.19209" lon="-3.02187">
        <ele>132.9</ele>
        <time>2010-01-01T00:00:00Z</time>
      </trkpt>
      <trkpt lat="48.19216" lon="-3.02187">
        <ele>131.8</ele>
        <time>2010-01-01T00:00:00Z</time>
      </trkpt>
      <trkpt lat="48.19216" lon="-3.0218">
        <ele>131.1</ele>
        <time>2010-01-01T00:00:00Z</time>
      </trkpt>
      <trkpt lat="48.19211" lon="-3.02174">
        <ele>131.6</ele>
        <time>2010-01-01T00:00:00Z</time>
      </trkpt>
      <trkpt lat="48.19209" lon="-3.02171">
        <ele>131.8</ele>
        <time>2010-01-01T00:00:00Z</time>
      </trkpt>
      <trkpt lat="48.19208" lon="-3.02166">
        <ele>119.1</ele>
        <time>2010-01-01T00:00:00Z</time>
      </trkpt>
      <trkpt lat="48.19211" lon="-3.02164">
        <ele>118.5</ele>
        <time>2010-01-01T00:00:00Z</time>
      </trkpt>
      <trkpt lat="48.19217" lon="-3.02166">
        <ele>117.7</ele>
        <time>2010-01-01T00:00:00Z</time>
      </trkpt>
      <trkpt lat="48.1922" lon="-3.02163">
        <ele>117.2</ele>
        <time>2010-01-01T00:00:00Z</time>
      </trkpt>
      <trkpt lat="48.19219" lon="-3.02158">
        <ele>117</ele>
        <time>2010-01-01T00:00:00Z</time>
      </trkpt>
      <trkpt lat="48.19212" lon="-3.02151">
        <ele>117.4</ele>
        <time>2010-01-01T00:00:00Z</time>
      </trkpt>
      <trkpt lat="48.19207" lon="-3.02147">
        <ele>117.7</ele>
        <time>2010-01-01T00:00:00Z</time>
      </trkpt>
      <trkpt lat="48.19203" lon="-3.02139">
        <ele>117.3</ele>
        <time>2010-01-01T00:00:00Z</time>
      </trkpt>
      <trkpt lat="48.19206" lon="-3.02134">
        <ele>116.2</ele>
        <time>2010-01-01T00:00:00Z</time>
      </trkpt>
      <trkpt lat="48.19212" lon="-3.02135">
        <ele>115.7</ele>
        <time>2010-01-01T00:00:00Z</time>
      </trkpt>
      <trkpt lat="48.19219" lon="-3.02136">
        <ele>115.1</ele>
        <time>2010-01-01T00:00:00Z</time>
      </trkpt>
      <trkpt lat="48.19222" lon="-3.02133">
        <ele>114.5</ele>
        <time>2010-01-01T00:00:00Z</time>
      </trkpt>
      <trkpt lat="48.1922" lon="-3.0213">
        <ele>114.3</ele>
        <time>2010-01-01T00:00:00Z</time>
      </trkpt>
      <trkpt lat="48.19218" lon="-3.02125">
        <ele>113.8</ele>
        <time>2010-01-01T00:00:00Z</time>
      </trkpt>
      <trkpt lat="48.19222" lon="-3.0212">
        <ele>112.7</ele>
        <time>2010-01-01T00:00:00Z</time>
      </trkpt>
      <trkpt lat="48.1922" lon="-3.02115">
        <ele>112.2</ele>
        <time>2010-01-01T00:00:00Z</time>
      </trkpt>
      <trkpt lat="48.19217" lon="-3.02112">
        <ele>112.1</ele>
        <time>2010-01-01T00:00:00Z</time>
      </trkpt>
      <trkpt lat="48.19215" lon="-3.02105">
        <ele>111.4</ele>
        <time>2010-01-01T00:00:00Z</time>
      </trkpt>
      <trkpt lat="48.19214" lon="-3.02099">
        <ele>110.9</ele>
        <time>2010-01-01T00:00:00Z</time>
      </trkpt>
      <trkpt lat="48.19212" lon="-3.02092">
        <ele>110.5</ele>
        <time>2010-01-01T00:00:00Z</time>
      </trkpt>
      <trkpt lat="48.19217" lon="-3.02093">
        <ele>109.8</ele>
        <time>2010-01-01T00:00:00Z</time>
      </trkpt>
      <trkpt lat="48.19218" lon="-3.02093">
        <ele>109.7</ele>
        <time>2010-01-01T00:00:00Z</time>
      </trkpt>
      <trkpt lat="48.19218" lon="-3.02093">
        <ele>109.7</ele>
        <time>2010-01-01T00:00:00Z</time>
      </trkpt>
      <trkpt lat="48.19218" lon="-3.02093">
        <ele>109.7</ele>
        <time>2010-01-01T00:00:00Z</time>
      </trkpt>
      <trkpt lat="48.19217" lon="-3.02093">
        <ele>109.8</ele>
        <time>2010-01-01T00:00:00Z</time>
      </trkpt>
      <trkpt lat="48.19212" lon="-3.02092">
        <ele>110.5</ele>
        <time>2010-01-01T00:00:00Z</time>
      </trkpt>
      <trkpt lat="48.19208" lon="-3.02089">
        <ele>110.8</ele>
        <time>2010-01-01T00:00:00Z</time>
      </trkpt>
      <trkpt lat="48.19199" lon="-3.02085">
        <ele>111.4</ele>
        <time>2010-01-01T00:00:00Z</time>
      </trkpt>
      <trkpt lat="48.19186" lon="-3.02075">
        <ele>102.4</ele>
        <time>2010-01-01T00:00:00Z</time>
      </trkpt>
      <trkpt lat="48.19165" lon="-3.02059">
        <ele>109.1</ele>
        <time>2010-01-01T00:00:00Z</time>
      </trkpt>
      <trkpt lat="48.19123" lon="-3.02035">
        <ele>109.6</ele>
        <time>2010-01-01T00:00:00Z</time>
      </trkpt>
      <trkpt lat="48.19103" lon="-3.02009">
        <ele>108.1</ele>
        <time>2010-01-01T00:00:00Z</time>
      </trkpt>
      <trkpt lat="48.19095" lon="-3.02002">
        <ele>107.4</ele>
        <time>2010-01-01T00:00:00Z</time>
      </trkpt>
      <trkpt lat="48.19084" lon="-3.01997">
        <ele>105</ele>
        <time>2010-01-01T00:00:00Z</time>
      </trkpt>
      <trkpt lat="48.19068" lon="-3.01987">
        <ele>103.9</ele>
        <time>2010-01-01T00:00:00Z</time>
      </trkpt>
      <trkpt lat="48.19058" lon="-3.01967">
        <ele>102.2</ele>
        <time>2010-01-01T00:00:00Z</time>
      </trkpt>
      <trkpt lat="48.19042" lon="-3.01941">
        <ele>100.2</ele>
        <time>2010-01-01T00:00:00Z</time>
      </trkpt>
      <trkpt lat="48.19037" lon="-3.01936">
        <ele>99.8</ele>
        <time>2010-01-01T00:00:00Z</time>
      </trkpt>
      <trkpt lat="48.19021" lon="-3.01953">
        <ele>101.5</ele>
        <time>2010-01-01T00:00:00Z</time>
      </trkpt>
      <trkpt lat="48.19012" lon="-3.0195">
        <ele>101.1</ele>
        <time>2010-01-01T00:00:00Z</time>
      </trkpt>
      <trkpt lat="48.18989" lon="-3.01939">
        <ele>98.7</ele>
        <time>2010-01-01T00:00:00Z</time>
      </trkpt>
      <trkpt lat="48.1897" lon="-3.01925">
        <ele>98</ele>
        <time>2010-01-01T00:00:00Z</time>
      </trkpt>
      <trkpt lat="48.18948" lon="-3.01902">
        <ele>91</ele>
        <time>2010-01-01T00:00:00Z</time>
      </trkpt>
      <trkpt lat="48.18938" lon="-3.01893">
        <ele>90.8</ele>
        <time>2010-01-01T00:00:00Z</time>
      </trkpt>
      <trkpt lat="48.18899" lon="-3.01868">
        <ele>90.7</ele>
        <time>2010-01-01T00:00:00Z</time>
      </trkpt>
    </trkseg>
  </trk>
</gpx>